CPA298 VHHH-EDDF

Flight info

Callsign CPA298
Flight time 11h 48m
Altitude 30100
Route BEKOL A461 SHL W22 TEPID W24 OSNOV G586 QP B330 ELKAL W179 OTGIN/K0937S0980 W179 IGNAK/K0939S0950 W179 WFX/K0933S0980 W179 OMBON W195 VIDEK/K0935S0950 W195 LAXAL/K0928S0980 W195 IDOPA W197 ANDIM B215 IBANO G470 AKLAS W192 FKG A368 VARMI/K0898S1040 A368 SARIN/K0900F340 N161 GASBI/N0492F360 N161 LEYLA T916 MATAL DCT TABAS DCT REBLO UM11 CRM UL746 ODERO DCT OPT DCT IRLOX DCT BALUX/N0477F380 DCT TEKNO DCT ABETI DCT SUBEN DCT AKINI T161 DEBHI DEBHI1B
Aircraft B77W/H-SDE1E2E3FGHIJ2J3J4J5M1RWXY/LB1D1

Departure

Time 2026-05-06 01:34
Airport Hong Kong International Airport (VHHH)

Arrival

Time 2026-05-06 13:22
Airport Frankfurt Main Airport (EDDF)
Time Latitude Longitude Altitude Speed Heading
2026-05-06 00:36 22.31073 113.92551 37 ft 0 kts 115°
2026-05-06 01:23 22.31080 113.92536 35 ft 4 kts 115°
2026-05-06 01:23 22.31092 113.92510 34 ft 4 kts 115°
2026-05-06 01:23 22.31101 113.92489 37 ft 4 kts 103°
2026-05-06 01:23 22.31099 113.92467 36 ft 4 kts 38°
2026-05-06 01:24 22.31077 113.92454 37 ft 4 kts 26°
2026-05-06 01:24 22.31058 113.92444 35 ft 0 kts 26°
2026-05-06 01:26 22.31063 113.92447 37 ft 3 kts 26°
2026-05-06 01:26 22.31104 113.92468 37 ft 10 kts 26°
2026-05-06 01:27 22.31170 113.92503 37 ft 10 kts 26°
2026-05-06 01:27 22.31236 113.92500 37 ft 10 kts 326°
2026-05-06 01:27 22.31274 113.92437 37 ft 10 kts 298°
2026-05-06 01:27 22.31305 113.92368 37 ft 10 kts 296°
2026-05-06 01:28 22.31335 113.92300 37 ft 10 kts 296°
2026-05-06 01:28 22.31366 113.92232 37 ft 10 kts 296°
2026-05-06 01:28 22.31397 113.92165 37 ft 10 kts 296°
2026-05-06 01:28 22.31443 113.92090 37 ft 14 kts 323°
2026-05-06 01:29 22.31545 113.92051 37 ft 15 kts 341°
2026-05-06 01:29 22.31606 113.91977 37 ft 15 kts 259°
2026-05-06 01:29 22.31575 113.91870 37 ft 15 kts 250°
2026-05-06 01:29 22.31538 113.91757 37 ft 17 kts 250°
2026-05-06 01:30 22.31493 113.91624 37 ft 20 kts 251°
2026-05-06 01:30 22.31436 113.91438 37 ft 33 kts 252°
2026-05-06 01:30 22.31352 113.91165 37 ft 40 kts 250°
2026-05-06 01:30 22.31261 113.90900 37 ft 35 kts 249°
2026-05-06 01:31 22.31184 113.90663 37 ft 32 kts 251°
2026-05-06 01:31 22.31115 113.90443 36 ft 30 kts 251°
2026-05-06 01:31 22.31047 113.90234 37 ft 30 kts 250°
2026-05-06 01:31 22.30980 113.90025 37 ft 28 kts 251°
2026-05-06 01:32 22.30956 113.89936 37 ft 8 kts 271°
2026-05-06 01:32 22.30994 113.89896 37 ft 8 kts 336°
2026-05-06 01:32 22.31053 113.89872 35 ft 9 kts 340°
2026-05-06 01:32 22.31104 113.89865 35 ft 7 kts 33°
2026-05-06 01:33 22.31126 113.89908 35 ft 1 kts 70°
2026-05-06 01:33 22.31134 113.89932 35 ft 24 kts 70°
2026-05-06 01:33 22.31287 113.90403 35 ft 105 kts 70°
2026-05-06 01:33 22.31602 113.91378 37 ft 168 kts 70°
2026-05-06 01:34 22.32045 113.92740 62 ft 210 kts 70°
2026-05-06 01:34 22.32531 113.94221 626 ft 210 kts 70°
2026-05-06 01:34 22.32979 113.95602 1186 ft 211 kts 70°
2026-05-06 01:34 22.33425 113.97032 1732 ft 212 kts 76°
2026-05-06 01:35 22.33655 113.98612 2102 ft 216 kts 83°
2026-05-06 01:35 22.33878 114.00224 2498 ft 219 kts 80°
2026-05-06 01:35 22.34156 114.01867 2864 ft 224 kts 79°
2026-05-06 01:35 22.34440 114.03517 3354 ft 225 kts 84°
2026-05-06 01:36 22.34311 114.05225 3581 ft 233 kts 109°
2026-05-06 01:36 22.33540 114.06753 4027 ft 232 kts 130°
2026-05-06 01:36 22.32346 114.07896 4519 ft 230 kts 149°
2026-05-06 01:36 22.30850 114.08547 4875 ft 234 kts 170°
2026-05-06 01:37 22.29247 114.08695 5364 ft 230 kts 181°
2026-05-06 01:37 22.27628 114.08674 5716 ft 236 kts 181°
2026-05-06 01:37 22.25964 114.08639 6045 ft 243 kts 181°
2026-05-06 01:37 22.24253 114.08640 6404 ft 249 kts 180°
2026-05-06 01:38 22.22480 114.08646 6680 ft 260 kts 180°
2026-05-06 01:38 22.20634 114.08659 7020 ft 269 kts 180°
2026-05-06 01:38 22.18732 114.08787 7196 ft 281 kts 164°
2026-05-06 01:38 22.17011 114.09762 7472 ft 287 kts 135°
2026-05-06 01:39 22.15935 114.11568 8081 ft 284 kts 106°
2026-05-06 01:39 22.15687 114.13493 8350 ft 290 kts 91°
2026-05-06 01:39 22.15640 114.15643 8757 ft 291 kts 92°
2026-05-06 01:39 22.15534 114.17851 8868 ft 298 kts 94°
2026-05-06 01:40 22.15391 114.20103 8528 ft 302 kts 94°
2026-05-06 01:40 22.15245 114.22317 8648 ft 292 kts 94°
2026-05-06 01:40 22.15105 114.24507 9022 ft 293 kts 93°
2026-05-06 01:40 22.15227 114.26696 9484 ft 294 kts 78°
2026-05-06 01:41 22.15705 114.28849 9986 ft 296 kts 75°
2026-05-06 01:41 22.16245 114.31019 10384 ft 306 kts 75°
2026-05-06 01:41 22.16784 114.33312 10513 ft 324 kts 76°
2026-05-06 01:41 22.17322 114.35740 10663 ft 342 kts 77°
2026-05-06 01:42 22.17936 114.38283 10789 ft 356 kts 69°
2026-05-06 01:42 22.19292 114.40558 10998 ft 369 kts 43°
2026-05-06 01:42 22.21460 114.42059 11449 ft 376 kts 19°
2026-05-06 01:42 22.24038 114.42532 12043 ft 380 kts 356°
2026-05-06 01:43 22.26642 114.42130 12640 ft 380 kts 349°
2026-05-06 01:43 22.29270 114.41593 13219 ft 386 kts 349°
2026-05-06 01:43 22.31918 114.41054 13892 ft 389 kts 349°
2026-05-06 01:43 22.34584 114.40522 14586 ft 391 kts 349°
2026-05-06 01:44 22.37276 114.39996 15214 ft 395 kts 349°
2026-05-06 01:44 22.39994 114.39476 15810 ft 399 kts 349°
2026-05-06 01:44 22.42741 114.38954 16410 ft 403 kts 349°
2026-05-06 01:44 22.45501 114.38394 16939 ft 402 kts 345°
2026-05-06 01:45 22.48058 114.37138 17282 ft 409 kts 322°
2026-05-06 01:45 22.50022 114.34914 17822 ft 412 kts 303°
2026-05-06 01:45 22.51313 114.32158 18430 ft 413 kts 287°
2026-05-06 01:45 22.51908 114.29123 18941 ft 415 kts 278°
2026-05-06 01:46 22.52330 114.26016 19399 ft 420 kts 278°
2026-05-06 01:46 22.52779 114.22882 19901 ft 424 kts 279°
2026-05-06 01:46 22.53269 114.19727 20442 ft 426 kts 279°
2026-05-06 01:46 22.53890 114.16602 20851 ft 427 kts 290°
2026-05-06 01:47 22.55362 114.13809 21180 ft 433 kts 310°
2026-05-06 01:47 22.57584 114.11607 21655 ft 436 kts 326°
2026-05-06 01:47 22.60253 114.10068 22096 ft 436 kts 335°
2026-05-06 01:47 22.62992 114.08711 22460 ft 441 kts 335°
2026-05-06 01:48 22.65837 114.07313 22896 ft 445 kts 335°
2026-05-06 01:48 22.68622 114.05933 23369 ft 447 kts 335°
2026-05-06 01:48 22.71445 114.04513 23828 ft 449 kts 335°
2026-05-06 01:48 22.74285 114.03069 24253 ft 452 kts 334°
2026-05-06 01:49 22.77173 114.01589 24655 ft 455 kts 334°
2026-05-06 01:49 22.80040 114.00116 25038 ft 458 kts 334°
2026-05-06 01:49 22.82891 113.98650 25406 ft 461 kts 334°
2026-05-06 01:49 22.85796 113.97157 25796 ft 463 kts 334°
2026-05-06 01:50 22.88713 113.95658 26160 ft 465 kts 334°
2026-05-06 01:50 22.91645 113.94146 26517 ft 468 kts 334°
2026-05-06 01:50 22.94593 113.92614 26867 ft 470 kts 334°
2026-05-06 01:50 22.97548 113.91073 27194 ft 473 kts 334°
2026-05-06 01:51 23.00523 113.89521 27517 ft 475 kts 334°
2026-05-06 01:51 23.03511 113.87965 27835 ft 477 kts 334°
2026-05-06 01:51 23.06485 113.86352 28129 ft 479 kts 330°
2026-05-06 01:51 23.09308 113.84418 28408 ft 481 kts 324°
2026-05-06 01:52 23.11122 113.82949 28594 ft 482 kts 321°
2026-05-06 01:52 23.13634 113.80522 28857 ft 484 kts 315°
2026-05-06 01:52 23.16015 113.77996 29114 ft 486 kts 315°
2026-05-06 01:52 23.18415 113.75438 29353 ft 488 kts 315°
2026-05-06 01:53 23.20848 113.72852 29569 ft 490 kts 315°
2026-05-06 01:53 23.23289 113.70271 29818 ft 490 kts 314°
2026-05-06 01:53 23.25731 113.67699 30090 ft 488 kts 313°
2026-05-06 01:53 23.28119 113.65196 30133 ft 483 kts 313°
2026-05-06 01:54 23.32978 113.60105 30167 ft 488 kts 313°
2026-05-06 01:54 23.37889 113.54939 30176 ft 492 kts 313°
2026-05-06 01:55 23.42822 113.49750 30211 ft 494 kts 313°
2026-05-06 01:55 23.47789 113.44521 30218 ft 498 kts 314°
2026-05-06 01:56 23.52795 113.39246 30208 ft 502 kts 315°
2026-05-06 01:56 23.57775 113.33926 30229 ft 506 kts 315°
2026-05-06 01:57 23.62790 113.28501 30226 ft 510 kts 313°
2026-05-06 01:57 23.67168 113.22399 30223 ft 512 kts 302°
2026-05-06 01:58 23.70493 113.15524 30223 ft 513 kts 293°
2026-05-06 01:58 23.73338 113.08351 30219 ft 516 kts 294°
2026-05-06 01:59 23.76525 113.01459 30192 ft 514 kts 308°
2026-05-06 01:59 23.79036 112.98660 30222 ft 514 kts 321°
2026-05-06 01:59 23.82028 112.96521 30225 ft 516 kts 333°
2026-05-06 02:00 23.85397 112.95152 30223 ft 518 kts 344°
2026-05-06 02:00 23.88896 112.94197 30226 ft 519 kts 344°
2026-05-06 02:00 23.95804 112.92027 30226 ft 520 kts 342°
2026-05-06 02:01 24.02729 112.89690 30220 ft 521 kts 342°
2026-05-06 02:01 24.09687 112.87363 30211 ft 522 kts 342°
2026-05-06 02:02 24.16638 112.85057 30208 ft 521 kts 342°
2026-05-06 02:02 24.23532 112.82771 30209 ft 520 kts 342°
2026-05-06 02:03 24.30446 112.80476 30205 ft 519 kts 342°
2026-05-06 02:03 24.37345 112.78181 30210 ft 518 kts 342°
2026-05-06 02:04 24.43985 112.75334 30187 ft 511 kts 323°
2026-05-06 02:04 24.46597 112.72713 30204 ft 510 kts 308°
2026-05-06 02:04 24.48536 112.69446 30212 ft 510 kts 296°
2026-05-06 02:05 24.49877 112.65844 30190 ft 511 kts 285°
2026-05-06 02:05 24.50483 112.62010 30212 ft 510 kts 276°
2026-05-06 02:05 24.51125 112.54221 30200 ft 513 kts 275°
2026-05-06 02:06 24.51745 112.46391 30207 ft 516 kts 275°
2026-05-06 02:06 24.52459 112.38542 30200 ft 517 kts 276°
2026-05-06 02:07 24.53219 112.30679 30193 ft 518 kts 276°
2026-05-06 02:07 24.53969 112.22869 30192 ft 517 kts 276°
2026-05-06 02:08 24.54718 112.15018 30186 ft 516 kts 276°
2026-05-06 02:08 24.55457 112.07184 30189 ft 515 kts 276°
2026-05-06 02:09 24.56189 111.99362 30188 ft 514 kts 276°
2026-05-06 02:09 24.56919 111.91542 30188 ft 514 kts 276°
2026-05-06 02:10 24.57642 111.83725 30183 ft 514 kts 276°
2026-05-06 02:10 24.58362 111.75913 30180 ft 514 kts 276°
2026-05-06 02:11 24.59078 111.68096 30187 ft 514 kts 276°
2026-05-06 02:11 24.59793 111.60270 30182 ft 515 kts 276°
2026-05-06 02:12 24.60496 111.52491 30182 ft 515 kts 276°
2026-05-06 02:12 24.61200 111.44652 30173 ft 515 kts 276°
2026-05-06 02:13 24.61902 111.36816 30169 ft 515 kts 276°
2026-05-06 02:13 24.62601 111.28974 30174 ft 515 kts 276°
2026-05-06 02:14 24.63286 111.21121 30172 ft 515 kts 276°
2026-05-06 02:14 24.63963 111.13278 30168 ft 515 kts 275°
2026-05-06 02:15 24.64643 111.05451 30177 ft 515 kts 276°
2026-05-06 02:15 24.65310 110.97660 30174 ft 515 kts 275°
2026-05-06 02:16 24.65976 110.89814 30175 ft 515 kts 275°
2026-05-06 02:16 24.66809 110.81997 30163 ft 513 kts 284°
2026-05-06 02:17 24.68016 110.78311 30165 ft 513 kts 296°
2026-05-06 02:17 24.69821 110.74932 30176 ft 514 kts 306°
2026-05-06 02:17 24.74769 110.69246 30174 ft 515 kts 316°
2026-05-06 02:18 24.80049 110.63898 30163 ft 516 kts 316°
2026-05-06 02:18 24.85276 110.58460 30175 ft 517 kts 315°
2026-05-06 02:19 24.90470 110.52964 30165 ft 519 kts 315°
2026-05-06 02:19 24.95639 110.47486 30165 ft 519 kts 315°
2026-05-06 02:20 25.03458 110.39209 30164 ft 518 kts 315°
2026-05-06 02:21 25.08672 110.33714 30158 ft 518 kts 315°
2026-05-06 02:21 25.13875 110.28212 30164 ft 517 kts 315°
2026-05-06 02:22 25.19065 110.22720 30165 ft 517 kts 315°
2026-05-06 02:22 25.24232 110.17282 30161 ft 516 kts 316°
2026-05-06 02:23 25.29456 110.11827 30166 ft 516 kts 316°
2026-05-06 02:23 25.34646 110.06397 30164 ft 516 kts 316°
2026-05-06 02:24 25.39857 110.00931 30160 ft 516 kts 316°
2026-05-06 02:24 25.45060 109.95461 30169 ft 516 kts 316°
2026-05-06 02:25 25.50269 109.89980 30163 ft 516 kts 316°
2026-05-06 02:25 25.55445 109.84524 30161 ft 516 kts 316°
2026-05-06 02:26 25.60652 109.79032 30162 ft 517 kts 316°
2026-05-06 02:26 25.65861 109.73534 30172 ft 517 kts 316°
2026-05-06 02:27 25.71067 109.68029 30161 ft 517 kts 316°
2026-05-06 02:27 25.75944 109.62206 30157 ft 515 kts 304°
2026-05-06 02:28 25.79318 109.55227 30165 ft 515 kts 290°
2026-05-06 02:28 25.81335 109.47613 30170 ft 515 kts 285°
2026-05-06 02:29 25.83260 109.39963 30163 ft 515 kts 286°
2026-05-06 02:29 25.85253 109.32306 30171 ft 515 kts 286°
2026-05-06 02:30 25.87247 109.24710 30156 ft 516 kts 286°
2026-05-06 02:30 25.89253 109.17053 30164 ft 516 kts 286°
2026-05-06 02:31 25.91256 109.09378 30156 ft 516 kts 286°
2026-05-06 02:31 25.93258 109.01716 30155 ft 516 kts 286°
2026-05-06 02:32 25.95278 108.94066 30154 ft 516 kts 286°
2026-05-06 02:32 25.97300 108.86414 30147 ft 516 kts 286°
2026-05-06 02:33 25.99311 108.78763 30155 ft 516 kts 286°
2026-05-06 02:33 25.99976 108.76229 30153 ft 515 kts 286°
2026-05-06 02:34 26.03343 108.63535 30155 ft 515 kts 286°
2026-05-06 02:34 26.05395 108.55885 30156 ft 515 kts 286°
2026-05-06 02:35 26.07433 108.48240 30149 ft 515 kts 286°
2026-05-06 02:35 26.09499 108.40613 30152 ft 515 kts 289°
2026-05-06 02:36 26.12365 108.33308 30155 ft 515 kts 296°
2026-05-06 02:36 26.15519 108.26188 30150 ft 516 kts 295°
2026-05-06 02:37 26.18659 108.18988 30151 ft 516 kts 295°
2026-05-06 02:37 26.21768 108.11781 30148 ft 516 kts 295°
2026-05-06 02:38 26.24343 108.05785 30145 ft 516 kts 295°
2026-05-06 02:38 26.27447 107.98562 30147 ft 516 kts 295°
2026-05-06 02:39 26.30543 107.91332 30143 ft 517 kts 295°
2026-05-06 02:39 26.33619 107.84142 30143 ft 517 kts 295°
2026-05-06 02:40 26.36710 107.76911 30144 ft 517 kts 295°
2026-05-06 02:40 26.39799 107.69674 30147 ft 516 kts 295°
2026-05-06 02:41 26.42883 107.62434 30147 ft 516 kts 295°
2026-05-06 02:41 26.45961 107.55193 30146 ft 516 kts 295°
2026-05-06 02:42 26.49043 107.47953 30144 ft 516 kts 295°
2026-05-06 02:42 26.52147 107.40732 30146 ft 516 kts 295°
2026-05-06 02:43 26.55240 107.33505 30145 ft 515 kts 295°
2026-05-06 02:43 26.58287 107.26262 30141 ft 515 kts 294°
2026-05-06 02:44 26.61312 107.19041 30138 ft 516 kts 294°
2026-05-06 02:44 26.64364 107.11782 30132 ft 516 kts 295°
2026-05-06 02:45 26.67449 107.04537 30138 ft 516 kts 295°
2026-05-06 02:45 26.70536 106.97289 30135 ft 516 kts 295°
2026-05-06 02:46 26.73615 106.90027 30131 ft 516 kts 295°
2026-05-06 02:46 26.76735 106.82788 30136 ft 516 kts 298°
2026-05-06 02:47 26.80835 106.76272 30142 ft 517 kts 309°
2026-05-06 02:47 26.86010 106.70648 30134 ft 519 kts 318°
2026-05-06 02:48 26.91502 106.65392 30133 ft 519 kts 318°
2026-05-06 02:48 26.96971 106.60098 30138 ft 519 kts 317°
2026-05-06 02:49 27.02406 106.54757 30135 ft 519 kts 317°
2026-05-06 02:49 27.07841 106.49399 30134 ft 520 kts 317°
2026-05-06 02:50 27.13276 106.44040 30134 ft 520 kts 317°
2026-05-06 02:50 27.18684 106.38704 30130 ft 520 kts 317°
2026-05-06 02:51 27.24131 106.33365 30116 ft 520 kts 318°
2026-05-06 02:51 27.29617 106.28042 30117 ft 520 kts 318°
2026-05-06 02:52 27.35096 106.22722 30111 ft 520 kts 318°
2026-05-06 02:52 27.40572 106.17384 30099 ft 520 kts 318°
2026-05-06 02:53 27.46041 106.12047 30115 ft 520 kts 317°
2026-05-06 02:53 27.51506 106.06698 30099 ft 520 kts 317°
2026-05-06 02:54 27.56969 106.01343 30100 ft 521 kts 317°
2026-05-06 02:54 27.62435 105.95982 30083 ft 521 kts 317°
2026-05-06 02:55 27.67901 105.90615 30083 ft 520 kts 317°
2026-05-06 02:55 27.72579 105.84547 30084 ft 516 kts 301°
2026-05-06 02:56 27.75610 105.77232 30071 ft 515 kts 286°
2026-05-06 02:56 27.77637 105.69468 30066 ft 515 kts 286°
2026-05-06 02:57 27.79804 105.61762 30067 ft 516 kts 288°
2026-05-06 02:57 27.82602 105.54297 30067 ft 516 kts 293°
2026-05-06 02:58 27.85526 105.46879 30062 ft 516 kts 292°
2026-05-06 02:58 27.88402 105.39432 30064 ft 516 kts 293°
2026-05-06 02:59 27.91551 105.32200 30056 ft 516 kts 296°
2026-05-06 02:59 27.94806 105.24982 30056 ft 515 kts 296°
2026-05-06 03:00 27.98673 105.18198 30054 ft 516 kts 310°
2026-05-06 03:00 28.04073 105.12841 30043 ft 519 kts 326°
2026-05-06 03:01 28.10271 105.08620 30048 ft 520 kts 328°
2026-05-06 03:01 28.16478 105.04406 30046 ft 520 kts 327°
2026-05-06 03:02 28.22613 105.00135 30034 ft 520 kts 326°
2026-05-06 03:02 28.28771 104.95814 30034 ft 520 kts 326°
2026-05-06 03:03 28.34928 104.91489 30032 ft 520 kts 326°
2026-05-06 03:03 28.41094 104.87165 30015 ft 520 kts 326°
2026-05-06 03:04 28.47261 104.82851 30007 ft 520 kts 326°
2026-05-06 03:04 28.53413 104.78541 30015 ft 519 kts 326°
2026-05-06 03:05 28.59517 104.74257 30018 ft 518 kts 326°
2026-05-06 03:05 28.65650 104.69945 30005 ft 518 kts 326°
2026-05-06 03:06 28.71786 104.65629 29998 ft 517 kts 326°
2026-05-06 03:06 28.77905 104.61308 29998 ft 517 kts 326°
2026-05-06 03:07 28.84030 104.56987 29994 ft 518 kts 326°
2026-05-06 03:07 28.90150 104.52653 29997 ft 518 kts 326°
2026-05-06 03:08 28.96273 104.48296 29993 ft 519 kts 326°
2026-05-06 03:08 29.02405 104.43926 29986 ft 519 kts 326°
2026-05-06 03:09 29.08538 104.39549 29993 ft 519 kts 326°
2026-05-06 03:09 29.14636 104.35196 29987 ft 520 kts 326°
2026-05-06 03:10 29.20773 104.30806 29987 ft 520 kts 326°
2026-05-06 03:10 29.27364 104.27475 29994 ft 524 kts 346°
2026-05-06 03:11 29.34670 104.27197 29974 ft 529 kts
2026-05-06 03:11 29.41950 104.28588 29979 ft 531 kts
2026-05-06 03:12 29.49263 104.29934 29978 ft 533 kts
2026-05-06 03:12 29.56614 104.31203 29971 ft 535 kts
2026-05-06 03:13 29.63990 104.32449 29961 ft 535 kts
2026-05-06 03:13 29.71369 104.33706 29956 ft 536 kts
2026-05-06 03:14 29.78683 104.34951 29958 ft 535 kts
2026-05-06 03:14 29.86049 104.36215 29956 ft 535 kts
2026-05-06 03:15 29.93407 104.37472 29955 ft 534 kts
2026-05-06 03:15 30.00764 104.38737 29969 ft 533 kts
2026-05-06 03:16 30.08092 104.39998 29975 ft 532 kts
2026-05-06 03:16 30.15421 104.41265 29976 ft 532 kts
2026-05-06 03:17 30.22746 104.42540 29978 ft 532 kts
2026-05-06 03:17 30.30022 104.43815 29978 ft 532 kts
2026-05-06 03:18 30.37360 104.45099 29979 ft 532 kts
2026-05-06 03:18 30.44680 104.46384 29977 ft 532 kts
2026-05-06 03:19 30.52010 104.47671 29978 ft 533 kts
2026-05-06 03:19 30.59362 104.48393 29979 ft 529 kts 355°
2026-05-06 03:20 30.70062 104.45763 29990 ft 524 kts 339°
2026-05-06 03:20 30.76904 104.42967 29975 ft 525 kts 340°
2026-05-06 03:21 30.83860 104.40344 29973 ft 525 kts 343°
2026-05-06 03:21 30.91080 104.38843 29982 ft 527 kts 353°
2026-05-06 03:22 30.98377 104.38595 29987 ft 528 kts 358°
2026-05-06 03:22 31.05738 104.38496 29976 ft 529 kts 358°
2026-05-06 03:23 31.13094 104.38324 29982 ft 529 kts 357°
2026-05-06 03:23 31.20459 104.38120 29975 ft 528 kts 357°
2026-05-06 03:24 31.27822 104.37896 29978 ft 528 kts 356°
2026-05-06 03:24 31.35093 104.37476 29986 ft 526 kts 355°
2026-05-06 03:25 31.42408 104.37005 29988 ft 526 kts 355°
2026-05-06 03:25 31.49721 104.36567 30000 ft 526 kts 355°
2026-05-06 03:26 31.57041 104.36149 30008 ft 526 kts 355°
2026-05-06 03:26 31.63117 104.35796 29999 ft 526 kts 355°
2026-05-06 03:27 31.70435 104.35372 30000 ft 525 kts 356°
2026-05-06 03:27 31.78924 104.34880 30014 ft 525 kts 356°
2026-05-06 03:28 31.85031 104.34559 30012 ft 525 kts 356°
2026-05-06 03:28 31.92293 104.34203 29994 ft 525 kts 356°
2026-05-06 03:29 31.99602 104.33833 30022 ft 526 kts 356°
2026-05-06 03:29 32.06934 104.33460 30022 ft 526 kts 356°
2026-05-06 03:30 32.14253 104.33081 30031 ft 526 kts 356°
2026-05-06 03:30 32.21575 104.32706 30031 ft 526 kts 356°
2026-05-06 03:31 32.28887 104.32325 30033 ft 526 kts 356°
2026-05-06 03:31 32.36203 104.31948 30037 ft 526 kts 356°
2026-05-06 03:32 32.43509 104.31570 30045 ft 526 kts 356°
2026-05-06 03:32 32.50790 104.31208 30044 ft 527 kts 356°
2026-05-06 03:33 32.58108 104.30842 30054 ft 526 kts 356°
2026-05-06 03:33 32.65440 104.30480 30065 ft 527 kts 356°
2026-05-06 03:34 32.72768 104.30134 30060 ft 527 kts 356°
2026-05-06 03:34 32.80094 104.29786 30066 ft 526 kts 356°
2026-05-06 03:35 32.87415 104.29432 30071 ft 526 kts 356°
2026-05-06 03:35 32.94737 104.29078 30083 ft 526 kts 355°
2026-05-06 03:36 33.02020 104.28728 30083 ft 527 kts 355°
2026-05-06 03:36 33.09362 104.28378 30090 ft 527 kts 355°
2026-05-06 03:37 33.16696 104.28022 30102 ft 528 kts 355°
2026-05-06 03:37 33.24042 104.27663 30119 ft 529 kts 355°
2026-05-06 03:38 33.31400 104.27205 30096 ft 528 kts 350°
2026-05-06 03:38 33.38448 104.25012 30130 ft 522 kts 336°
2026-05-06 03:39 33.44803 104.21033 30127 ft 518 kts 326°
2026-05-06 03:39 33.51012 104.16645 30134 ft 518 kts 328°
2026-05-06 03:40 33.57487 104.12810 30144 ft 522 kts 339°
2026-05-06 03:40 33.64634 104.11042 30154 ft 529 kts 354°
2026-05-06 03:41 33.72018 104.11024 30166 ft 531 kts 358°
2026-05-06 03:41 33.79399 104.11143 30171 ft 532 kts 358°
2026-05-06 03:42 33.86809 104.11201 30177 ft 532 kts 357°
2026-05-06 03:42 33.94213 104.11210 30200 ft 532 kts 357°
2026-05-06 03:43 34.01633 104.11203 30191 ft 532 kts 357°
2026-05-06 03:43 34.09038 104.11195 30206 ft 532 kts 357°
2026-05-06 03:44 34.16432 104.11197 30218 ft 531 kts 357°
2026-05-06 03:44 34.23773 104.11195 30223 ft 531 kts 357°
2026-05-06 03:45 34.31161 104.11196 30238 ft 531 kts 357°
2026-05-06 03:45 34.38553 104.11195 30246 ft 531 kts 357°
2026-05-06 03:46 34.45952 104.11196 30249 ft 531 kts 357°
2026-05-06 03:46 34.53331 104.11197 30261 ft 530 kts 357°
2026-05-06 03:47 34.60722 104.11199 30281 ft 530 kts 357°
2026-05-06 03:47 34.68098 104.11196 30283 ft 530 kts 357°
2026-05-06 03:48 34.75466 104.11196 30294 ft 529 kts 357°
2026-05-06 03:48 34.82779 104.11199 30311 ft 529 kts 357°
2026-05-06 03:49 34.90133 104.11198 30320 ft 529 kts 357°
2026-05-06 03:49 34.97485 104.11198 30333 ft 528 kts 358°
2026-05-06 03:50 35.04834 104.11199 30352 ft 528 kts 358°
2026-05-06 03:50 35.12181 104.11200 30359 ft 527 kts 357°
2026-05-06 03:51 35.19509 104.11201 30365 ft 526 kts 358°
2026-05-06 03:51 35.26829 104.11198 30372 ft 526 kts 357°
2026-05-06 03:52 35.34149 104.11199 30377 ft 524 kts 358°
2026-05-06 03:52 35.41440 104.11199 30382 ft 524 kts 358°
2026-05-06 03:53 35.48695 104.11201 30386 ft 523 kts 357°
2026-05-06 03:53 35.55968 104.11213 30394 ft 523 kts 358°
2026-05-06 03:54 35.63247 104.11236 30405 ft 523 kts 358°
2026-05-06 03:54 35.70519 104.11265 30399 ft 522 kts 358°
2026-05-06 03:55 35.77781 104.11285 30413 ft 521 kts 358°
2026-05-06 03:55 35.85029 104.11165 30409 ft 519 kts 353°
2026-05-06 03:56 35.92222 104.10365 30421 ft 518 kts 352°
2026-05-06 03:56 35.99368 104.09520 30425 ft 519 kts 352°
2026-05-06 03:57 36.06569 104.08727 30422 ft 519 kts 352°
2026-05-06 03:57 36.13771 104.07949 30434 ft 519 kts 352°
2026-05-06 03:58 36.20974 104.07163 30430 ft 519 kts 352°
2026-05-06 03:58 36.28184 104.06375 30432 ft 520 kts 352°
2026-05-06 03:59 36.35346 104.05583 30431 ft 521 kts 352°
2026-05-06 03:59 36.42569 104.04793 30427 ft 521 kts 352°
2026-05-06 04:00 36.49793 104.04003 30434 ft 520 kts 352°
2026-05-06 04:00 36.56955 104.02947 30427 ft 513 kts 341°
2026-05-06 04:01 36.60192 104.01187 30437 ft 507 kts 324°
2026-05-06 04:01 36.62942 103.98465 30449 ft 504 kts 313°
2026-05-06 04:01 36.65140 103.95092 30443 ft 501 kts 299°
2026-05-06 04:01 36.66783 103.91354 30447 ft 498 kts 296°
2026-05-06 04:02 36.69973 103.83673 30444 ft 501 kts 296°
2026-05-06 04:02 36.73230 103.75976 30443 ft 503 kts 297°
2026-05-06 04:03 36.76547 103.68291 30441 ft 504 kts 297°
2026-05-06 04:03 36.79884 103.60583 30438 ft 504 kts 297°
2026-05-06 04:04 36.83207 103.52882 30439 ft 503 kts 297°
2026-05-06 04:04 36.86515 103.45182 30440 ft 502 kts 297°
2026-05-06 04:05 36.89810 103.37503 30435 ft 501 kts 296°
2026-05-06 04:05 36.93073 103.29875 30437 ft 500 kts 297°
2026-05-06 04:06 36.96647 103.22409 30438 ft 500 kts 301°
2026-05-06 04:06 37.00390 103.15064 30444 ft 500 kts 301°
2026-05-06 04:07 37.04122 103.07707 30439 ft 500 kts 301°
2026-05-06 04:07 37.07830 103.00329 30438 ft 501 kts 300°
2026-05-06 04:08 37.11524 102.92938 30441 ft 500 kts 300°
2026-05-06 04:08 37.15188 102.85591 30437 ft 500 kts 300°
2026-05-06 04:09 37.18883 102.78184 30435 ft 501 kts 300°
2026-05-06 04:09 37.22567 102.70767 30437 ft 500 kts 300°
2026-05-06 04:10 37.26247 102.63343 30427 ft 501 kts 300°
2026-05-06 04:10 37.29922 102.55917 30433 ft 500 kts 300°
2026-05-06 04:11 37.33574 102.48472 30426 ft 500 kts 298°
2026-05-06 04:11 37.36405 102.40532 30430 ft 497 kts 288°
2026-05-06 04:12 37.38219 102.32172 30434 ft 495 kts 282°
2026-05-06 04:12 37.39830 102.23737 30430 ft 495 kts 283°
2026-05-06 04:13 37.41463 102.15372 30431 ft 496 kts 283°
2026-05-06 04:13 37.43126 102.06947 30430 ft 496 kts 283°
2026-05-06 04:14 37.44770 101.98522 30433 ft 496 kts 283°
2026-05-06 04:14 37.46120 101.91506 30420 ft 496 kts 283°
2026-05-06 04:15 37.47740 101.83054 30430 ft 495 kts 283°
2026-05-06 04:15 37.49353 101.74631 30417 ft 495 kts 283°
2026-05-06 04:16 37.51503 101.66399 30422 ft 496 kts 292°
2026-05-06 04:16 37.54659 101.58655 30420 ft 497 kts 297°
2026-05-06 04:17 37.57981 101.50996 30421 ft 498 kts 297°
2026-05-06 04:17 37.61270 101.43311 30426 ft 498 kts 297°
2026-05-06 04:18 37.64514 101.35659 30419 ft 497 kts 296°
2026-05-06 04:18 37.67769 101.27949 30412 ft 498 kts 296°
2026-05-06 04:19 37.71026 101.20230 30413 ft 498 kts 296°
2026-05-06 04:19 37.74274 101.12506 30410 ft 497 kts 296°
2026-05-06 04:20 37.77517 101.04774 30408 ft 497 kts 296°
2026-05-06 04:20 37.80751 100.97045 30419 ft 496 kts 296°
2026-05-06 04:21 37.83997 100.89330 30412 ft 497 kts 297°
2026-05-06 04:21 37.87389 100.81707 30409 ft 497 kts 298°
2026-05-06 04:22 37.90795 100.74161 30405 ft 497 kts 298°
2026-05-06 04:23 37.95903 100.62742 30404 ft 496 kts 298°
2026-05-06 04:23 37.99288 100.55100 30397 ft 496 kts 298°
2026-05-06 04:24 38.02658 100.47464 30405 ft 496 kts 298°
2026-05-06 04:24 38.06032 100.39813 30419 ft 497 kts 298°
2026-05-06 04:25 38.09373 100.32213 30422 ft 496 kts 298°
2026-05-06 04:25 38.12731 100.24563 30422 ft 495 kts 298°
2026-05-06 04:26 38.16082 100.16905 30421 ft 496 kts 298°
2026-05-06 04:26 38.19435 100.09236 30423 ft 496 kts 298°
2026-05-06 04:27 38.22779 100.01561 30416 ft 497 kts 298°
2026-05-06 04:27 38.26066 99.93872 30414 ft 492 kts 297°
2026-05-06 04:28 38.29383 99.86245 30412 ft 494 kts 298°
2026-05-06 04:28 38.32730 99.78571 30407 ft 496 kts 298°
2026-05-06 04:29 38.36066 99.70874 30414 ft 497 kts 297°
2026-05-06 04:29 38.39376 99.63193 30414 ft 497 kts 297°
2026-05-06 04:30 38.42698 99.55457 30411 ft 497 kts 297°
2026-05-06 04:30 38.46010 99.47720 30413 ft 497 kts 297°
2026-05-06 04:31 38.49320 99.39975 30416 ft 496 kts 297°
2026-05-06 04:31 38.52619 99.32227 30407 ft 496 kts 297°
2026-05-06 04:32 38.55911 99.24486 30408 ft 496 kts 297°
2026-05-06 04:32 38.59179 99.16783 30410 ft 495 kts 297°
2026-05-06 04:33 38.62460 99.09032 30407 ft 495 kts 297°
2026-05-06 04:33 38.65736 99.01268 30405 ft 495 kts 297°
2026-05-06 04:34 38.68995 98.93521 30402 ft 494 kts 297°
2026-05-06 04:34 38.72253 98.85765 30406 ft 494 kts 297°
2026-05-06 04:35 38.75500 98.78002 30405 ft 494 kts 297°
2026-05-06 04:35 38.78731 98.70279 30407 ft 495 kts 297°
2026-05-06 04:36 38.81980 98.62492 30399 ft 495 kts 297°
2026-05-06 04:36 38.85224 98.54702 30403 ft 495 kts 297°
2026-05-06 04:37 38.88461 98.46896 30406 ft 495 kts 297°
2026-05-06 04:37 38.91688 98.39075 30403 ft 495 kts 296°
2026-05-06 04:38 38.94920 98.31252 30403 ft 495 kts 296°
2026-05-06 04:38 38.98141 98.23429 30403 ft 495 kts 296°
2026-05-06 04:39 39.01332 98.15655 30401 ft 494 kts 296°
2026-05-06 04:39 39.04538 98.07831 30407 ft 495 kts 296°
2026-05-06 04:40 39.07749 97.99979 30409 ft 495 kts 296°
2026-05-06 04:40 39.10948 97.92117 30396 ft 494 kts 296°
2026-05-06 04:41 39.14135 97.84271 30400 ft 494 kts 296°
2026-05-06 04:41 39.17314 97.76425 30400 ft 494 kts 296°
2026-05-06 04:42 39.20476 97.68613 30393 ft 495 kts 296°
2026-05-06 04:42 39.23655 97.60733 30390 ft 496 kts 296°
2026-05-06 04:43 39.26848 97.52839 30391 ft 495 kts 296°
2026-05-06 04:43 39.30032 97.44960 30398 ft 495 kts 296°
2026-05-06 04:44 39.33212 97.37059 30393 ft 495 kts 296°
2026-05-06 04:44 39.36381 97.29158 30389 ft 495 kts 296°
2026-05-06 04:45 39.39528 97.21298 30397 ft 495 kts 296°
2026-05-06 04:45 39.42687 97.13387 30396 ft 496 kts 296°
2026-05-06 04:46 39.45847 97.05453 30396 ft 495 kts 296°
2026-05-06 04:46 39.49010 96.97539 30396 ft 495 kts 296°
2026-05-06 04:47 39.52192 96.89628 30395 ft 495 kts 296°
2026-05-06 04:47 39.55362 96.81712 30387 ft 495 kts 296°
2026-05-06 04:48 39.58526 96.73791 30394 ft 494 kts 296°
2026-05-06 04:48 39.61683 96.65869 30396 ft 494 kts 296°
2026-05-06 04:49 39.64830 96.57939 30392 ft 495 kts 295°
2026-05-06 04:49 39.67953 96.49989 30398 ft 494 kts 295°
2026-05-06 04:50 39.71059 96.42066 30396 ft 495 kts 295°
2026-05-06 04:50 39.74177 96.34094 30385 ft 495 kts 295°
2026-05-06 04:51 39.77299 96.26100 30387 ft 495 kts 295°
2026-05-06 04:51 39.80414 96.18099 30390 ft 496 kts 295°
2026-05-06 04:52 39.83527 96.10094 30378 ft 496 kts 295°
2026-05-06 04:52 39.86611 96.02129 30388 ft 496 kts 295°
2026-05-06 04:53 39.89706 95.94102 30393 ft 496 kts 295°
2026-05-06 04:53 39.92803 95.86064 30390 ft 495 kts 295°
2026-05-06 04:54 39.95885 95.78039 30396 ft 495 kts 295°
2026-05-06 04:54 39.98963 95.70012 30395 ft 494 kts 295°
2026-05-06 04:55 40.02031 95.61984 30395 ft 494 kts 295°
2026-05-06 04:55 40.05092 95.53950 30395 ft 494 kts 295°
2026-05-06 04:56 40.08131 95.45946 30398 ft 494 kts 295°
2026-05-06 04:56 40.11179 95.37900 30396 ft 494 kts 295°
2026-05-06 04:57 40.14224 95.29854 30392 ft 494 kts 295°
2026-05-06 04:57 40.17259 95.21795 30390 ft 494 kts 294°
2026-05-06 04:58 40.20291 95.13732 30394 ft 494 kts 295°
2026-05-06 04:58 40.23364 95.05684 30394 ft 494 kts 295°
2026-05-06 04:59 40.26444 94.97641 30394 ft 494 kts 295°
2026-05-06 04:59 40.29521 94.89599 30395 ft 494 kts 296°
2026-05-06 05:00 40.33293 94.82044 30389 ft 497 kts 307°
2026-05-06 05:00 40.37649 94.74992 30401 ft 497 kts 307°
2026-05-06 05:01 40.41244 94.69116 30389 ft 497 kts 306°
2026-05-06 05:01 40.46251 94.60849 30391 ft 497 kts 306°
2026-05-06 05:02 40.50536 94.53719 30395 ft 498 kts 306°
2026-05-06 05:02 40.54133 94.47730 30389 ft 498 kts 306°
2026-05-06 05:03 40.58398 94.40609 30395 ft 498 kts 306°
2026-05-06 05:03 40.62687 94.33424 30391 ft 498 kts 306°
2026-05-06 05:04 40.66969 94.26244 30389 ft 498 kts 306°
2026-05-06 05:04 40.71241 94.19079 30389 ft 497 kts 306°
2026-05-06 05:05 40.75516 94.11885 30386 ft 498 kts 306°
2026-05-06 05:05 40.79780 94.04676 30393 ft 498 kts 306°
2026-05-06 05:06 40.84015 93.97512 30388 ft 497 kts 306°
2026-05-06 05:06 40.88266 93.90302 30396 ft 498 kts 306°
2026-05-06 05:07 40.92522 93.83088 30394 ft 498 kts 307°
2026-05-06 05:07 40.96982 93.76073 30392 ft 499 kts 309°
2026-05-06 05:08 41.01552 93.69140 30391 ft 499 kts 309°
2026-05-06 05:08 41.06099 93.62174 30396 ft 500 kts 309°
2026-05-06 05:09 41.10616 93.55164 30412 ft 500 kts 308°
2026-05-06 05:09 41.15121 93.48122 30421 ft 500 kts 308°
2026-05-06 05:10 41.19592 93.41118 30422 ft 500 kts 308°
2026-05-06 05:10 41.24096 93.34056 30421 ft 501 kts 308°
2026-05-06 05:11 41.28594 93.26982 30422 ft 501 kts 308°
2026-05-06 05:11 41.33096 93.19891 30420 ft 501 kts 308°
2026-05-06 05:12 41.37586 93.12801 30419 ft 501 kts 308°
2026-05-06 05:12 41.42077 93.05689 30420 ft 501 kts 308°
2026-05-06 05:13 41.46563 92.98572 30422 ft 501 kts 308°
2026-05-06 05:13 41.51014 92.91491 30421 ft 501 kts 308°
2026-05-06 05:14 41.55518 92.84308 30421 ft 501 kts 308°
2026-05-06 05:14 41.59967 92.77200 30420 ft 501 kts 308°
2026-05-06 05:15 41.64443 92.70030 30420 ft 502 kts 308°
2026-05-06 05:15 41.68928 92.62827 30405 ft 503 kts 308°
2026-05-06 05:16 41.73415 92.55605 30404 ft 505 kts 308°
2026-05-06 05:16 41.77873 92.48411 30397 ft 505 kts 308°
2026-05-06 05:17 41.82357 92.41157 30405 ft 505 kts 308°
2026-05-06 05:17 41.86839 92.33892 30401 ft 505 kts 308°
2026-05-06 05:18 41.91318 92.26615 30402 ft 506 kts 308°
2026-05-06 05:18 41.95796 92.19312 30401 ft 506 kts 308°
2026-05-06 05:19 42.00272 92.12003 30402 ft 506 kts 308°
2026-05-06 05:19 42.04746 92.04679 30403 ft 507 kts 308°
2026-05-06 05:20 42.09198 91.97376 30406 ft 508 kts 308°
2026-05-06 05:20 42.13667 91.90020 30404 ft 507 kts 308°
2026-05-06 05:21 42.18133 91.82652 30399 ft 507 kts 308°
2026-05-06 05:21 42.22604 91.75300 30407 ft 506 kts 310°
2026-05-06 05:22 42.27592 91.68578 30406 ft 507 kts 316°
2026-05-06 05:22 42.32764 91.62093 30404 ft 507 kts 316°
2026-05-06 05:23 42.37908 91.55565 30406 ft 507 kts 316°
2026-05-06 05:23 42.45584 91.45709 30403 ft 507 kts 316°
2026-05-06 05:24 42.50698 91.39114 30405 ft 508 kts 316°
2026-05-06 05:24 42.55774 91.32559 30408 ft 508 kts 316°
2026-05-06 05:25 42.60891 91.25939 30414 ft 508 kts 316°
2026-05-06 05:25 42.66005 91.19305 30414 ft 508 kts 316°
2026-05-06 05:26 42.71114 91.12660 30411 ft 508 kts 316°
2026-05-06 05:26 42.76215 91.06008 30413 ft 508 kts 316°
2026-05-06 05:27 42.81324 90.99334 30413 ft 508 kts 316°
2026-05-06 05:27 42.86375 90.92702 30414 ft 508 kts 315°
2026-05-06 05:28 42.90881 90.85302 30412 ft 508 kts 304°
2026-05-06 05:28 42.94579 90.77084 30415 ft 508 kts 302°
2026-05-06 05:29 42.98257 90.68844 30414 ft 509 kts 302°
2026-05-06 05:29 43.01973 90.60604 30408 ft 509 kts 302°
2026-05-06 05:30 43.05701 90.52355 30411 ft 509 kts 302°
2026-05-06 05:30 43.09418 90.44108 30412 ft 509 kts 302°
2026-05-06 05:31 43.13127 90.35838 30410 ft 509 kts 302°
2026-05-06 05:31 43.16837 90.27558 30415 ft 510 kts 302°
2026-05-06 05:32 43.20536 90.19268 30412 ft 510 kts 302°
2026-05-06 05:32 43.24237 90.10965 30413 ft 510 kts 302°
2026-05-06 05:33 43.27914 90.02712 30414 ft 510 kts 302°
2026-05-06 05:33 43.31609 89.94399 30414 ft 511 kts 302°
2026-05-06 05:34 43.35300 89.86063 30412 ft 511 kts 302°
2026-05-06 05:34 43.38984 89.77710 30421 ft 511 kts 302°
2026-05-06 05:35 43.42668 89.69340 30416 ft 511 kts 302°
2026-05-06 05:35 43.46347 89.60955 30416 ft 511 kts 302°
2026-05-06 05:36 43.49993 89.52623 30410 ft 511 kts 302°
2026-05-06 05:36 43.53658 89.44228 30409 ft 511 kts 302°
2026-05-06 05:37 43.57327 89.35825 30417 ft 511 kts 302°
2026-05-06 05:37 43.61050 89.27478 30410 ft 511 kts 303°
2026-05-06 05:38 43.64781 89.19127 30418 ft 511 kts 302°
2026-05-06 05:38 43.68506 89.10740 30411 ft 512 kts 302°
2026-05-06 05:39 43.72194 89.02397 30414 ft 512 kts 302°
2026-05-06 05:39 43.75896 88.93983 30412 ft 512 kts 302°
2026-05-06 05:40 43.79585 88.85587 30406 ft 511 kts 302°
2026-05-06 05:40 43.83278 88.77166 30416 ft 511 kts 302°
2026-05-06 05:41 43.86955 88.68741 30406 ft 511 kts 302°
2026-05-06 05:41 43.90632 88.60298 30418 ft 511 kts 302°
2026-05-06 05:42 43.94298 88.51851 30412 ft 512 kts 302°
2026-05-06 05:42 43.97967 88.43379 30409 ft 512 kts 302°
2026-05-06 05:43 44.01608 88.34944 30404 ft 512 kts 302°
2026-05-06 05:43 44.05262 88.26452 30407 ft 512 kts 302°
2026-05-06 05:44 44.08915 88.17939 30412 ft 512 kts 302°
2026-05-06 05:44 44.12561 88.09422 30413 ft 512 kts 302°
2026-05-06 05:45 44.16196 88.00895 30411 ft 512 kts 302°
2026-05-06 05:45 44.20208 87.92735 30410 ft 510 kts 309°
2026-05-06 05:46 44.24532 87.84909 30404 ft 510 kts 309°
2026-05-06 05:46 44.28818 87.77031 30417 ft 510 kts 308°
2026-05-06 05:47 44.33067 87.69121 30409 ft 509 kts 308°
2026-05-06 05:47 44.37344 87.61289 30412 ft 509 kts 309°
2026-05-06 05:48 44.41674 87.53451 30414 ft 509 kts 309°
2026-05-06 05:48 44.45993 87.45584 30413 ft 509 kts 309°
2026-05-06 05:49 44.50293 87.37707 30411 ft 509 kts 308°
2026-05-06 05:49 44.54584 87.29842 30414 ft 508 kts 308°
2026-05-06 05:50 44.58960 87.22067 30407 ft 508 kts 310°
2026-05-06 05:50 44.63453 87.14428 30413 ft 507 kts 310°
2026-05-06 05:51 44.67171 87.08041 30411 ft 507 kts 310°
2026-05-06 05:51 44.71611 87.00327 30412 ft 507 kts 310°
2026-05-06 05:52 44.76049 86.92626 30413 ft 507 kts 310°
2026-05-06 05:52 44.80491 86.84901 30410 ft 507 kts 310°
2026-05-06 05:53 44.84916 86.77169 30406 ft 507 kts 309°
2026-05-06 05:53 44.89299 86.69376 30404 ft 507 kts 309°
2026-05-06 05:54 44.93665 86.61556 30401 ft 507 kts 309°
2026-05-06 05:54 44.98002 86.53779 30403 ft 507 kts 309°
2026-05-06 05:55 45.02366 86.45949 30402 ft 507 kts 309°
2026-05-06 05:55 45.06725 86.38103 30403 ft 507 kts 309°
2026-05-06 05:56 45.11079 86.30252 30401 ft 507 kts 309°
2026-05-06 05:56 45.15431 86.22378 30393 ft 507 kts 309°
2026-05-06 05:57 45.19776 86.14494 30391 ft 507 kts 308°
2026-05-06 05:57 45.24110 86.06604 30395 ft 507 kts 308°
2026-05-06 05:58 45.28443 85.98700 30390 ft 506 kts 308°
2026-05-06 05:58 45.32757 85.90804 30395 ft 506 kts 308°
2026-05-06 05:59 45.37067 85.82902 30394 ft 506 kts 308°
2026-05-06 05:59 45.41377 85.74971 30382 ft 506 kts 308°
2026-05-06 06:00 45.45654 85.67079 30388 ft 507 kts 308°
2026-05-06 06:00 45.49953 85.59121 30384 ft 507 kts 308°
2026-05-06 06:01 45.54247 85.51154 30365 ft 507 kts 308°
2026-05-06 06:01 45.58533 85.43181 30367 ft 506 kts 308°
2026-05-06 06:02 45.62813 85.35189 30368 ft 506 kts 308°
2026-05-06 06:02 45.67089 85.27189 30387 ft 507 kts 308°
2026-05-06 06:03 45.71365 85.19172 30365 ft 507 kts 308°
2026-05-06 06:03 45.75650 85.11170 30379 ft 506 kts 308°
2026-05-06 06:04 45.79933 85.03161 30367 ft 506 kts 308°
2026-05-06 06:04 45.84181 84.95182 30364 ft 507 kts 308°
2026-05-06 06:05 45.88452 84.87147 30359 ft 507 kts 308°
2026-05-06 06:05 45.92710 84.79092 30360 ft 506 kts 308°
2026-05-06 06:06 45.96976 84.71008 30352 ft 508 kts 307°
2026-05-06 06:06 46.01238 84.62903 30359 ft 508 kts 307°
2026-05-06 06:07 46.05502 84.54789 30358 ft 508 kts 307°
2026-05-06 06:07 46.09751 84.46654 30355 ft 508 kts 307°
2026-05-06 06:08 46.14001 84.38508 30349 ft 508 kts 307°
2026-05-06 06:08 46.18240 84.30358 30347 ft 508 kts 307°
2026-05-06 06:09 46.22447 84.22251 30347 ft 508 kts 307°
2026-05-06 06:09 46.26674 84.14080 30346 ft 507 kts 307°
2026-05-06 06:10 46.30880 84.05885 30350 ft 507 kts 307°
2026-05-06 06:10 46.35076 83.97665 30348 ft 508 kts 307°
2026-05-06 06:11 46.39270 83.89430 30341 ft 508 kts 307°
2026-05-06 06:11 46.43463 83.81183 30337 ft 508 kts 307°
2026-05-06 06:12 46.47640 83.72937 30338 ft 507 kts 307°
2026-05-06 06:12 46.51813 83.64673 30340 ft 508 kts 306°
2026-05-06 06:13 46.55981 83.56389 30335 ft 507 kts 306°
2026-05-06 06:13 46.60145 83.48106 30337 ft 507 kts 306°
2026-05-06 06:14 46.64295 83.39819 30331 ft 507 kts 306°
2026-05-06 06:14 46.68255 83.31327 30329 ft 506 kts 302°
2026-05-06 06:15 46.71957 83.22688 30328 ft 506 kts 302°
2026-05-06 06:15 46.75689 83.13973 30324 ft 506 kts 302°
2026-05-06 06:16 46.79432 83.05280 30316 ft 506 kts 302°
2026-05-06 06:16 46.83176 82.96570 30324 ft 506 kts 302°
2026-05-06 06:17 46.86185 82.87309 30318 ft 506 kts 289°
2026-05-06 06:17 46.87807 82.77317 30324 ft 506 kts 279°
2026-05-06 06:18 46.88785 82.67117 30324 ft 507 kts 278°
2026-05-06 06:18 46.89767 82.56960 30316 ft 507 kts 278°
2026-05-06 06:19 46.90790 82.46744 30321 ft 508 kts 279°
2026-05-06 06:19 46.91816 82.36528 30321 ft 508 kts 279°
2026-05-06 06:20 46.92834 82.26292 30318 ft 508 kts 278°
2026-05-06 06:20 46.93841 82.16054 30322 ft 508 kts 278°
2026-05-06 06:21 46.94838 82.05813 30322 ft 508 kts 278°
2026-05-06 06:21 46.95824 81.95587 30320 ft 507 kts 278°
2026-05-06 06:22 46.96792 81.85366 30320 ft 507 kts 278°
2026-05-06 06:22 46.97732 81.75203 30319 ft 507 kts 278°
2026-05-06 06:23 46.98670 81.64963 30323 ft 507 kts 278°
2026-05-06 06:23 46.99601 81.54726 30321 ft 507 kts 278°
2026-05-06 06:24 47.00525 81.44478 30318 ft 507 kts 278°
2026-05-06 06:24 47.01438 81.34229 30319 ft 508 kts 277°
2026-05-06 06:25 47.02344 81.23965 30319 ft 508 kts 277°
2026-05-06 06:26 47.03684 81.08560 30311 ft 508 kts 277°
2026-05-06 06:26 47.04569 80.98295 30311 ft 508 kts 277°
2026-05-06 06:27 47.05443 80.88024 30311 ft 508 kts 277°
2026-05-06 06:27 47.06310 80.77747 30310 ft 507 kts 277°
2026-05-06 06:28 47.07165 80.67481 30312 ft 507 kts 277°
2026-05-06 06:28 47.08015 80.57198 30312 ft 507 kts 277°
2026-05-06 06:29 47.08854 80.46905 30309 ft 508 kts 277°
2026-05-06 06:29 47.09684 80.36616 30314 ft 508 kts 277°
2026-05-06 06:30 47.10501 80.26395 30309 ft 508 kts 276°
2026-05-06 06:30 47.11312 80.16094 30307 ft 507 kts 276°
2026-05-06 06:31 47.12114 80.05796 30293 ft 508 kts 276°
2026-05-06 06:31 47.12908 79.95495 30291 ft 507 kts 276°
2026-05-06 06:32 47.13694 79.85186 30294 ft 508 kts 276°
2026-05-06 06:32 47.14483 79.74876 30294 ft 508 kts 276°
2026-05-06 06:33 47.15267 79.64573 30293 ft 507 kts 276°
2026-05-06 06:33 47.16035 79.54273 30293 ft 507 kts 276°
2026-05-06 06:34 47.16800 79.43966 30292 ft 507 kts 276°
2026-05-06 06:34 47.17554 79.33656 30292 ft 507 kts 276°
2026-05-06 06:35 47.18292 79.23419 30292 ft 507 kts 276°
2026-05-06 06:35 47.19029 79.13108 30293 ft 507 kts 275°
2026-05-06 06:36 47.19746 79.02777 30292 ft 507 kts 275°
2026-05-06 06:36 47.20451 78.92439 30295 ft 508 kts 275°
2026-05-06 06:37 47.21147 78.82110 30291 ft 508 kts 275°
2026-05-06 06:37 47.21719 78.73509 30293 ft 508 kts 275°
2026-05-06 06:38 47.22508 78.61470 30292 ft 508 kts 275°
2026-05-06 06:38 47.23073 78.52797 30293 ft 508 kts 275°
2026-05-06 06:39 47.23734 78.42518 30293 ft 508 kts 275°
2026-05-06 06:39 47.24388 78.32162 30298 ft 507 kts 275°
2026-05-06 06:40 47.25027 78.21827 30301 ft 507 kts 274°
2026-05-06 06:40 47.25665 78.11493 30303 ft 507 kts 274°
2026-05-06 06:41 47.26287 78.01152 30301 ft 507 kts 274°
2026-05-06 06:41 47.26897 77.90868 30303 ft 507 kts 274°
2026-05-06 06:42 47.27504 77.80523 30301 ft 507 kts 274°
2026-05-06 06:42 47.28098 77.70173 30300 ft 507 kts 274°
2026-05-06 06:43 47.28688 77.59823 30303 ft 507 kts 274°
2026-05-06 06:43 47.29266 77.49482 30312 ft 507 kts 274°
2026-05-06 06:44 47.29834 77.39131 30311 ft 507 kts 274°
2026-05-06 06:44 47.30393 77.28768 30310 ft 507 kts 274°
2026-05-06 06:45 47.30944 77.18407 30310 ft 507 kts 274°
2026-05-06 06:45 47.31482 77.08102 30320 ft 507 kts 274°
2026-05-06 06:46 47.32345 76.97786 30332 ft 508 kts 278°
2026-05-06 06:46 47.33424 76.87491 30318 ft 508 kts 278°
2026-05-06 06:47 47.34497 76.77195 30320 ft 508 kts 277°
2026-05-06 06:47 47.35537 76.66880 30322 ft 508 kts 277°
2026-05-06 06:48 47.36556 76.56569 30320 ft 508 kts 277°
2026-05-06 06:48 47.37561 76.46262 30321 ft 508 kts 277°
2026-05-06 06:49 47.38554 76.36002 30320 ft 508 kts 277°
2026-05-06 06:49 47.39544 76.25693 30313 ft 507 kts 277°
2026-05-06 06:50 47.40526 76.15378 30319 ft 507 kts 277°
2026-05-06 06:50 47.41496 76.05055 30320 ft 507 kts 277°
2026-05-06 06:51 47.42456 75.94748 30322 ft 507 kts 277°
2026-05-06 06:51 47.43411 75.84429 30321 ft 507 kts 277°
2026-05-06 06:52 47.44357 75.74098 30325 ft 507 kts 277°
2026-05-06 06:52 47.45291 75.63781 30330 ft 507 kts 277°
2026-05-06 06:53 47.46211 75.53496 30331 ft 507 kts 277°
2026-05-06 06:53 47.47127 75.43138 30328 ft 507 kts 276°
2026-05-06 06:54 47.48034 75.32792 30331 ft 507 kts 276°
2026-05-06 06:54 47.48931 75.22446 30329 ft 507 kts 276°
2026-05-06 06:55 47.49817 75.12091 30328 ft 507 kts 276°
2026-05-06 06:55 47.50699 75.01750 30331 ft 507 kts 276°
2026-05-06 06:56 47.51565 74.91398 30330 ft 507 kts 276°
2026-05-06 06:56 47.52425 74.81034 30329 ft 507 kts 276°
2026-05-06 06:57 47.53278 74.70670 30330 ft 507 kts 276°
2026-05-06 06:57 47.54120 74.60308 30329 ft 507 kts 276°
2026-05-06 06:58 47.54953 74.49930 30328 ft 507 kts 276°
2026-05-06 06:58 47.55769 74.39620 30330 ft 507 kts 276°
2026-05-06 06:59 47.56581 74.29239 30342 ft 506 kts 276°
2026-05-06 06:59 47.57382 74.18893 30326 ft 506 kts 276°
2026-05-06 07:00 47.58176 74.08527 30320 ft 506 kts 276°
2026-05-06 07:00 47.58958 73.98165 30321 ft 506 kts 276°
2026-05-06 07:01 47.59733 73.87802 30333 ft 506 kts 276°
2026-05-06 07:01 47.60498 73.77438 30322 ft 506 kts 276°
2026-05-06 07:02 47.61250 73.67121 30322 ft 507 kts 275°
2026-05-06 07:02 47.61995 73.56724 30320 ft 507 kts 275°
2026-05-06 07:03 47.62737 73.46322 30321 ft 506 kts 275°
2026-05-06 07:03 47.63466 73.35935 30320 ft 506 kts 275°
2026-05-06 07:04 47.64186 73.25551 30319 ft 506 kts 275°
2026-05-06 07:04 47.64894 73.15151 30321 ft 507 kts 275°
2026-05-06 07:05 47.65592 73.04752 30319 ft 507 kts 276°
2026-05-06 07:05 47.66283 72.94345 30318 ft 507 kts 276°
2026-05-06 07:06 47.66965 72.83987 30309 ft 507 kts 276°
2026-05-06 07:06 47.67635 72.73567 30310 ft 507 kts 276°
2026-05-06 07:07 47.68296 72.63129 30327 ft 507 kts 276°
2026-05-06 07:07 47.68953 72.52713 30312 ft 507 kts 276°
2026-05-06 07:08 47.69596 72.42283 30310 ft 507 kts 276°
2026-05-06 07:08 47.70233 72.31857 30312 ft 507 kts 276°
2026-05-06 07:09 47.70853 72.21504 30309 ft 507 kts 276°
2026-05-06 07:09 47.71467 72.11084 30312 ft 506 kts 276°
2026-05-06 07:10 47.72072 72.00668 30311 ft 506 kts 275°
2026-05-06 07:10 47.72669 71.90243 30311 ft 507 kts 275°
2026-05-06 07:11 47.73249 71.79796 30323 ft 506 kts 275°
2026-05-06 07:11 47.73703 71.69365 30314 ft 506 kts 274°
2026-05-06 07:12 47.74105 71.58912 30311 ft 506 kts 274°
2026-05-06 07:12 47.74509 71.48541 30311 ft 506 kts 274°
2026-05-06 07:13 47.74924 71.38087 30305 ft 507 kts 274°
2026-05-06 07:13 47.75331 71.27623 30292 ft 506 kts 274°
2026-05-06 07:14 47.75725 71.17175 30293 ft 506 kts 274°
2026-05-06 07:14 47.76110 71.06726 30292 ft 506 kts 274°
2026-05-06 07:15 47.76483 70.96291 30289 ft 505 kts 274°
2026-05-06 07:15 47.76845 70.85924 30283 ft 505 kts 273°
2026-05-06 07:16 47.77203 70.75501 30279 ft 504 kts 273°
2026-05-06 07:16 47.77549 70.65079 30274 ft 504 kts 273°
2026-05-06 07:17 47.77882 70.54673 30273 ft 503 kts 273°
2026-05-06 07:17 47.78211 70.44279 30275 ft 503 kts 273°
2026-05-06 07:18 47.78526 70.33889 30272 ft 503 kts 273°
2026-05-06 07:18 47.78833 70.23489 30275 ft 503 kts 272°
2026-05-06 07:19 47.79135 70.13106 30270 ft 502 kts 272°
2026-05-06 07:19 47.79423 70.02735 30259 ft 502 kts 272°
2026-05-06 07:20 47.79700 69.92423 30266 ft 502 kts 272°
2026-05-06 07:20 47.79971 69.82053 30252 ft 502 kts 272°
2026-05-06 07:21 47.80231 69.71677 30252 ft 502 kts 272°
2026-05-06 07:21 47.80481 69.61306 30260 ft 502 kts 272°
2026-05-06 07:22 47.80726 69.50921 30254 ft 502 kts 272°
2026-05-06 07:22 47.80957 69.40525 30254 ft 502 kts 272°
2026-05-06 07:23 47.81179 69.30142 30251 ft 502 kts 272°
2026-05-06 07:23 47.81392 69.19754 30253 ft 502 kts 272°
2026-05-06 07:24 47.81599 69.09368 30250 ft 502 kts 272°
2026-05-06 07:24 47.81794 68.98984 30259 ft 502 kts 272°
2026-05-06 07:25 47.81948 68.90355 30254 ft 502 kts 272°
2026-05-06 07:25 47.81891 68.78274 30238 ft 503 kts 264°
2026-05-06 07:26 47.80922 68.67983 30244 ft 502 kts 262°
2026-05-06 07:26 47.80083 68.59366 30242 ft 502 kts 262°
2026-05-06 07:27 47.79114 68.49071 30251 ft 503 kts 263°
2026-05-06 07:27 47.78149 68.38773 30248 ft 503 kts 263°
2026-05-06 07:28 47.77185 68.28537 30253 ft 503 kts 263°
2026-05-06 07:28 47.75710 68.13079 30250 ft 503 kts 262°
2026-05-06 07:29 47.74713 68.02785 30249 ft 503 kts 262°
2026-05-06 07:29 47.73710 67.92498 30243 ft 503 kts 262°
2026-05-06 07:30 47.72704 67.82276 30247 ft 503 kts 262°
2026-05-06 07:30 47.71542 67.72036 30244 ft 503 kts 258°
2026-05-06 07:31 47.70028 67.61914 30237 ft 503 kts 258°
2026-05-06 07:31 47.68494 67.51789 30246 ft 502 kts 258°
2026-05-06 07:32 47.66972 67.41682 30245 ft 502 kts 258°
2026-05-06 07:32 47.65458 67.31585 30254 ft 501 kts 258°
2026-05-06 07:33 47.63936 67.21520 30245 ft 500 kts 258°
2026-05-06 07:33 47.62405 67.11475 30247 ft 499 kts 258°
2026-05-06 07:34 47.60867 67.01451 30243 ft 498 kts 258°
2026-05-06 07:34 47.59323 66.91442 30246 ft 498 kts 258°
2026-05-06 07:35 47.57775 66.81459 30253 ft 497 kts 258°
2026-05-06 07:35 47.56221 66.71481 30246 ft 496 kts 258°
2026-05-06 07:36 47.54607 66.61561 30247 ft 495 kts 257°
2026-05-06 07:36 47.52970 66.51726 30249 ft 495 kts 257°
2026-05-06 07:37 47.51326 66.41864 30237 ft 494 kts 257°
2026-05-06 07:37 47.49676 66.32001 30247 ft 493 kts 257°
2026-05-06 07:38 47.48022 66.22150 30253 ft 494 kts 257°
2026-05-06 07:38 47.46361 66.12314 30243 ft 493 kts 257°
2026-05-06 07:39 47.44692 66.02472 30248 ft 493 kts 257°
2026-05-06 07:39 47.43015 65.92647 30236 ft 493 kts 257°
2026-05-06 07:40 47.41332 65.82839 30238 ft 492 kts 257°
2026-05-06 07:40 47.39705 65.73081 30237 ft 492 kts 257°
2026-05-06 07:41 47.38084 65.63271 30233 ft 492 kts 257°
2026-05-06 07:41 47.36450 65.53479 30239 ft 492 kts 257°
2026-05-06 07:42 47.34799 65.43679 30239 ft 492 kts 257°
2026-05-06 07:42 47.33140 65.33893 30239 ft 492 kts 257°
2026-05-06 07:43 47.31472 65.24096 30235 ft 492 kts 257°
2026-05-06 07:43 47.29798 65.14315 30230 ft 492 kts 257°
2026-05-06 07:44 47.28117 65.04545 30228 ft 492 kts 256°
2026-05-06 07:44 47.26439 64.94840 30229 ft 492 kts 256°
2026-05-06 07:45 47.24740 64.85026 30230 ft 492 kts 256°
2026-05-06 07:45 47.23059 64.75343 30217 ft 491 kts 256°
2026-05-06 07:46 47.21359 64.65615 30219 ft 491 kts 256°
2026-05-06 07:46 47.19652 64.55890 30220 ft 491 kts 256°
2026-05-06 07:47 47.17934 64.46164 30218 ft 490 kts 256°
2026-05-06 07:47 47.16213 64.36512 30220 ft 490 kts 256°
2026-05-06 07:48 47.14482 64.26824 30217 ft 490 kts 256°
2026-05-06 07:48 47.12747 64.17131 30217 ft 490 kts 256°
2026-05-06 07:49 47.11007 64.07457 30221 ft 490 kts 256°
2026-05-06 07:49 47.09254 63.97775 30217 ft 490 kts 256°
2026-05-06 07:50 47.07495 63.88113 30213 ft 490 kts 255°
2026-05-06 07:50 47.05722 63.78451 30211 ft 490 kts 255°
2026-05-06 07:51 47.03950 63.68860 30207 ft 490 kts 255°
2026-05-06 07:51 47.02167 63.59208 30211 ft 490 kts 255°
2026-05-06 07:52 47.00380 63.49575 30205 ft 490 kts 255°
2026-05-06 07:52 46.98576 63.39938 30199 ft 490 kts 255°
2026-05-06 07:53 46.96766 63.30319 30199 ft 490 kts 255°
2026-05-06 07:53 46.94944 63.20691 30201 ft 491 kts 255°
2026-05-06 07:54 46.93116 63.11056 30193 ft 491 kts 254°
2026-05-06 07:54 46.91291 63.01483 30188 ft 491 kts 254°
2026-05-06 07:55 46.89446 62.91861 30192 ft 491 kts 254°
2026-05-06 07:55 46.87588 62.82240 30191 ft 491 kts 254°
2026-05-06 07:56 46.85725 62.72626 30191 ft 491 kts 254°
2026-05-06 07:56 46.83859 62.63031 30186 ft 491 kts 254°
2026-05-06 07:57 46.81977 62.53427 30180 ft 491 kts 253°
2026-05-06 07:57 46.80102 62.43898 30182 ft 491 kts 253°
2026-05-06 07:58 46.78206 62.34315 30181 ft 492 kts 253°
2026-05-06 07:58 46.76302 62.24733 30181 ft 492 kts 253°
2026-05-06 07:59 46.74393 62.15168 30181 ft 492 kts 253°
2026-05-06 07:59 46.72471 62.05595 30182 ft 492 kts 253°
2026-05-06 08:00 46.70545 61.96041 30182 ft 492 kts 253°
2026-05-06 08:00 46.68606 61.86472 30182 ft 492 kts 252°
2026-05-06 08:01 46.66662 61.76923 30177 ft 492 kts 252°
2026-05-06 08:01 46.64710 61.67378 30172 ft 491 kts 252°
2026-05-06 08:02 46.62761 61.57916 30172 ft 491 kts 252°
2026-05-06 08:02 46.60799 61.48398 30173 ft 491 kts 252°
2026-05-06 08:03 46.58827 61.38881 30174 ft 492 kts 252°
2026-05-06 08:03 46.56843 61.29368 30172 ft 492 kts 252°
2026-05-06 08:04 46.54848 61.19846 30174 ft 492 kts 252°
2026-05-06 08:04 46.52850 61.10346 30173 ft 491 kts 252°
2026-05-06 08:05 46.50846 61.00867 30169 ft 491 kts 252°
2026-05-06 08:05 46.48848 60.91469 30170 ft 490 kts 252°
2026-05-06 08:06 46.46834 60.82023 30156 ft 490 kts 252°
2026-05-06 08:06 46.44798 60.72525 30165 ft 490 kts 251°
2026-05-06 08:07 46.42781 60.63162 30159 ft 490 kts 251°
2026-05-06 08:07 46.40744 60.53750 30144 ft 490 kts 251°
2026-05-06 08:08 46.38703 60.44347 30137 ft 489 kts 251°
2026-05-06 08:08 46.36652 60.34945 30133 ft 489 kts 251°
2026-05-06 08:09 46.34592 60.25558 30114 ft 490 kts 251°
2026-05-06 08:09 46.32525 60.16169 30099 ft 490 kts 251°
2026-05-06 08:10 46.30449 60.06782 30098 ft 490 kts 251°
2026-05-06 08:10 46.28364 59.97399 30097 ft 489 kts 251°
2026-05-06 08:11 46.26273 59.88028 30098 ft 490 kts 251°
2026-05-06 08:11 46.24174 59.78659 30098 ft 489 kts 251°
2026-05-06 08:12 46.22083 59.69370 30098 ft 489 kts 251°
2026-05-06 08:12 46.19956 59.60033 30094 ft 490 kts 250°
2026-05-06 08:13 46.17814 59.50699 30102 ft 489 kts 250°
2026-05-06 08:13 46.15667 59.41366 30099 ft 490 kts 250°
2026-05-06 08:14 46.13877 59.33619 30097 ft 490 kts 250°
2026-05-06 08:14 46.11718 59.24301 30095 ft 490 kts 250°
2026-05-06 08:15 46.09556 59.14997 30095 ft 490 kts 250°
2026-05-06 08:15 46.07381 59.05689 30096 ft 490 kts 250°
2026-05-06 08:16 46.05195 58.96377 30086 ft 491 kts 250°
2026-05-06 08:16 46.03003 58.87074 30086 ft 491 kts 250°
2026-05-06 08:17 46.00798 58.77753 30096 ft 491 kts 249°
2026-05-06 08:17 45.98589 58.68459 30100 ft 491 kts 249°
2026-05-06 08:18 45.96386 58.59226 30112 ft 492 kts 249°
2026-05-06 08:18 45.94141 58.49861 30104 ft 492 kts 249°
2026-05-06 08:19 45.91916 58.40614 30094 ft 493 kts 249°
2026-05-06 08:19 45.89669 58.31317 30096 ft 493 kts 249°
2026-05-06 08:20 45.87413 58.22019 30101 ft 493 kts 249°
2026-05-06 08:20 45.85149 58.12726 30100 ft 493 kts 249°
2026-05-06 08:21 45.82879 58.03445 30098 ft 493 kts 249°
2026-05-06 08:21 45.80599 57.94174 30102 ft 493 kts 249°
2026-05-06 08:22 45.78334 57.84981 30097 ft 492 kts 249°
2026-05-06 08:22 45.76043 57.75729 30103 ft 492 kts 249°
2026-05-06 08:23 45.73747 57.66491 30108 ft 492 kts 248°
2026-05-06 08:23 45.71442 57.57267 30110 ft 492 kts 248°
2026-05-06 08:24 45.69133 57.48046 30104 ft 492 kts 248°
2026-05-06 08:24 45.66822 57.38845 30096 ft 492 kts 248°
2026-05-06 08:25 45.64517 57.29715 30113 ft 492 kts 248°
2026-05-06 08:25 45.62184 57.20522 30111 ft 492 kts 248°
2026-05-06 08:26 45.59844 57.11330 30087 ft 492 kts 248°
2026-05-06 08:26 45.57499 57.02144 30078 ft 492 kts 248°
2026-05-06 08:27 45.55146 56.92969 30080 ft 491 kts 248°
2026-05-06 08:27 45.52792 56.83820 30083 ft 491 kts 248°
2026-05-06 08:28 45.50446 56.74749 30082 ft 490 kts 247°
2026-05-06 08:28 45.48073 56.65621 30079 ft 490 kts 247°
2026-05-06 08:29 45.45704 56.56522 30080 ft 490 kts 247°
2026-05-06 08:29 45.43325 56.47416 30079 ft 490 kts 247°
2026-05-06 08:30 45.40940 56.38338 30080 ft 489 kts 247°
2026-05-06 08:30 45.38549 56.29266 30082 ft 489 kts 247°
2026-05-06 08:31 45.36152 56.20207 30078 ft 489 kts 246°
2026-05-06 08:31 45.33747 56.11158 30079 ft 489 kts 246°
2026-05-06 08:32 45.31335 56.02111 30078 ft 490 kts 246°
2026-05-06 08:32 45.28917 55.93073 30082 ft 489 kts 246°
2026-05-06 08:33 45.26507 55.84103 30078 ft 489 kts 246°
2026-05-06 08:33 45.24080 55.75098 30078 ft 489 kts 246°
2026-05-06 08:34 45.20424 55.61606 30079 ft 488 kts 246°
2026-05-06 08:35 45.17976 55.52614 30079 ft 489 kts 246°
2026-05-06 08:35 45.15521 55.43626 30080 ft 489 kts 246°
2026-05-06 08:36 45.13064 55.34659 30079 ft 488 kts 246°
2026-05-06 08:36 45.10590 55.25697 30081 ft 488 kts 245°
2026-05-06 08:37 45.07217 55.17451 30084 ft 483 kts 231°
2026-05-06 08:37 45.02731 55.10419 30084 ft 481 kts 221°
2026-05-06 08:38 44.97764 55.04102 30085 ft 481 kts 221°
2026-05-06 08:38 44.92797 54.97761 30091 ft 481 kts 221°
2026-05-06 08:39 44.87857 54.91392 30092 ft 481 kts 221°
2026-05-06 08:39 44.82916 54.85024 30088 ft 482 kts 221°
2026-05-06 08:40 44.77997 54.78698 30090 ft 482 kts 221°
2026-05-06 08:40 44.73013 54.72307 30091 ft 482 kts 221°
2026-05-06 08:41 44.68104 54.65980 30089 ft 482 kts 224°
2026-05-06 08:41 44.63735 54.58845 30094 ft 483 kts 233°
2026-05-06 08:42 44.59930 54.51057 30093 ft 484 kts 233°
2026-05-06 08:42 44.56090 54.43308 30099 ft 484 kts 233°
2026-05-06 08:43 44.52232 54.35580 30099 ft 483 kts 233°
2026-05-06 08:43 44.48362 54.27868 30098 ft 484 kts 233°
2026-05-06 08:44 44.44495 54.20173 30098 ft 484 kts 233°
2026-05-06 08:44 44.40616 54.12481 30099 ft 484 kts 233°
2026-05-06 08:45 44.36757 54.04848 30098 ft 484 kts 233°
2026-05-06 08:45 44.32866 53.97167 30112 ft 484 kts 233°
2026-05-06 08:46 44.28946 53.89449 30114 ft 484 kts 233°
2026-05-06 08:46 44.25045 53.81792 30114 ft 484 kts 233°
2026-05-06 08:47 44.21141 53.74143 30116 ft 484 kts 233°
2026-05-06 08:47 44.17260 53.66566 30115 ft 484 kts 233°
2026-05-06 08:48 44.13345 53.58936 30115 ft 484 kts 232°
2026-05-06 08:48 44.09424 53.51322 30121 ft 484 kts 233°
2026-05-06 08:49 44.05493 53.43704 30128 ft 484 kts 232°
2026-05-06 08:49 44.01565 53.36108 30126 ft 484 kts 232°
2026-05-06 08:50 43.97621 53.28505 30125 ft 485 kts 232°
2026-05-06 08:50 43.93668 53.20906 30131 ft 485 kts 232°
2026-05-06 08:51 43.89713 53.13316 30133 ft 485 kts 232°
2026-05-06 08:51 43.85773 53.05779 30139 ft 486 kts 232°
2026-05-06 08:52 43.81803 52.98194 30150 ft 486 kts 232°
2026-05-06 08:52 43.77827 52.90614 30154 ft 486 kts 232°
2026-05-06 08:53 43.73845 52.83043 30156 ft 486 kts 232°
2026-05-06 08:53 43.69861 52.75487 30163 ft 486 kts 232°
2026-05-06 08:54 43.65898 52.67986 30164 ft 486 kts 232°
2026-05-06 08:54 43.61887 52.60456 30165 ft 486 kts 232°
2026-05-06 08:55 43.57860 52.52948 30164 ft 487 kts 232°
2026-05-06 08:55 43.53827 52.45437 30165 ft 487 kts 232°
2026-05-06 08:56 43.49795 52.37943 30167 ft 487 kts 232°
2026-05-06 08:56 43.45753 52.30444 30159 ft 487 kts 232°
2026-05-06 08:57 43.41709 52.22957 30162 ft 487 kts 232°
2026-05-06 08:57 43.37655 52.15480 30162 ft 487 kts 232°
2026-05-06 08:58 43.33602 52.08021 30162 ft 487 kts 232°
2026-05-06 08:58 43.29538 52.00557 30165 ft 487 kts 232°
2026-05-06 08:59 43.25500 51.93166 30167 ft 487 kts 232°
2026-05-06 08:59 43.21431 51.85730 30156 ft 487 kts 232°
2026-05-06 09:00 43.17350 51.78293 30165 ft 488 kts 232°
2026-05-06 09:00 43.13268 51.70868 30155 ft 488 kts 232°
2026-05-06 09:01 43.09172 51.63442 30155 ft 489 kts 232°
2026-05-06 09:01 43.05764 51.57279 30153 ft 489 kts 232°
2026-05-06 09:02 43.01659 51.49869 30154 ft 489 kts 232°
2026-05-06 09:02 42.96875 51.41259 30154 ft 489 kts 232°
2026-05-06 09:03 42.92760 51.33873 30153 ft 489 kts 232°
2026-05-06 09:03 42.89311 51.27692 30154 ft 489 kts 231°
2026-05-06 09:04 42.85182 51.20319 30151 ft 489 kts 231°
2026-05-06 09:04 42.81083 51.13007 30154 ft 489 kts 231°
2026-05-06 09:05 42.76953 51.05663 30153 ft 489 kts 231°
2026-05-06 09:05 42.72814 50.98321 30166 ft 489 kts 231°
2026-05-06 09:06 42.68669 50.90988 30169 ft 489 kts 231°
2026-05-06 09:06 42.64516 50.83659 30172 ft 489 kts 231°
2026-05-06 09:07 42.60365 50.76347 30174 ft 489 kts 231°
2026-05-06 09:07 42.56210 50.69048 30171 ft 489 kts 231°
2026-05-06 09:08 42.52052 50.61764 30173 ft 488 kts 231°
2026-05-06 09:08 42.47915 50.54529 30171 ft 488 kts 231°
2026-05-06 09:09 42.43757 50.47274 30173 ft 487 kts 231°
2026-05-06 09:09 42.39724 50.39891 30171 ft 488 kts 233°
2026-05-06 09:10 42.35826 50.32390 30175 ft 487 kts 233°
2026-05-06 09:10 42.31906 50.24903 30171 ft 487 kts 233°
2026-05-06 09:11 42.27969 50.17467 30173 ft 486 kts 233°
2026-05-06 09:11 42.24013 50.10042 30175 ft 486 kts 233°
2026-05-06 09:12 42.20089 50.02695 30182 ft 486 kts 233°
2026-05-06 09:12 42.16134 49.95311 30191 ft 486 kts 233°
2026-05-06 09:13 42.12174 49.87928 30190 ft 486 kts 233°
2026-05-06 09:13 42.08203 49.80539 30190 ft 486 kts 233°
2026-05-06 09:14 42.04231 49.73171 30189 ft 486 kts 233°
2026-05-06 09:14 42.00279 49.65854 30194 ft 486 kts 233°
2026-05-06 09:15 41.96296 49.58499 30202 ft 486 kts 233°
2026-05-06 09:15 41.92310 49.51160 30199 ft 486 kts 232°
2026-05-06 09:16 41.88324 49.43838 30200 ft 486 kts 232°
2026-05-06 09:16 41.84338 49.36526 30208 ft 484 kts 232°
2026-05-06 09:17 41.80384 49.29283 30212 ft 485 kts 233°
2026-05-06 09:17 41.76609 49.21781 30209 ft 485 kts 236°
2026-05-06 09:18 41.72920 49.14204 30210 ft 485 kts 235°
2026-05-06 09:18 41.69203 49.06682 30209 ft 485 kts 235°
2026-05-06 09:19 41.65460 48.99192 30211 ft 484 kts 235°
2026-05-06 09:19 41.61711 48.91715 30209 ft 484 kts 234°
2026-05-06 09:20 41.57959 48.84247 30215 ft 483 kts 234°
2026-05-06 09:20 41.54236 48.76848 30220 ft 483 kts 234°
2026-05-06 09:21 41.50402 48.69484 30225 ft 483 kts 232°
2026-05-06 09:21 41.46305 48.62377 30224 ft 483 kts 231°
2026-05-06 09:22 41.42245 48.55224 30221 ft 483 kts 232°
2026-05-06 09:22 41.38284 48.47998 30230 ft 483 kts 233°
2026-05-06 09:23 41.34359 48.40742 30226 ft 483 kts 233°
2026-05-06 09:23 41.30413 48.33490 30226 ft 484 kts 233°
2026-05-06 09:24 41.26484 48.26309 30233 ft 483 kts 232°
2026-05-06 09:24 41.22530 48.19110 30259 ft 482 kts 232°
2026-05-06 09:25 41.18578 48.11917 30255 ft 483 kts 232°
2026-05-06 09:25 41.14614 48.04725 30249 ft 482 kts 233°
2026-05-06 09:26 41.11310 47.96974 30265 ft 485 kts 244°
2026-05-06 09:26 41.09107 47.88495 30251 ft 489 kts 254°
2026-05-06 09:27 41.07590 47.79698 30268 ft 490 kts 255°
2026-05-06 09:27 41.06077 47.70899 30257 ft 490 kts 255°
2026-05-06 09:28 41.04521 47.62103 30243 ft 490 kts 254°
2026-05-06 09:28 41.02945 47.53323 30244 ft 489 kts 254°
2026-05-06 09:29 41.01363 47.44560 30242 ft 489 kts 254°
2026-05-06 09:29 40.99770 47.35792 30241 ft 489 kts 254°
2026-05-06 09:30 40.98177 47.27042 30247 ft 489 kts 254°
2026-05-06 09:30 40.96578 47.18310 30247 ft 489 kts 254°
2026-05-06 09:31 40.94982 47.09606 30239 ft 490 kts 254°
2026-05-06 09:31 40.93368 47.00858 30237 ft 490 kts 254°
2026-05-06 09:32 40.91745 46.92102 30238 ft 490 kts 254°
2026-05-06 09:32 40.90126 46.83349 30236 ft 490 kts 255°
2026-05-06 09:33 40.89102 46.74423 30244 ft 492 kts 261°
2026-05-06 09:33 40.88306 46.65440 30240 ft 492 kts 261°
2026-05-06 09:34 40.87482 46.56454 30236 ft 493 kts 261°
2026-05-06 09:34 40.86629 46.47460 30227 ft 493 kts 261°
2026-05-06 09:35 40.85771 46.38533 30227 ft 493 kts 261°
2026-05-06 09:35 40.84898 46.29555 30230 ft 492 kts 261°
2026-05-06 09:36 40.84021 46.20583 30228 ft 492 kts 261°
2026-05-06 09:36 40.83138 46.11615 30226 ft 492 kts 260°
2026-05-06 09:37 40.82250 46.02666 30227 ft 491 kts 260°
2026-05-06 09:37 40.81355 45.93721 30224 ft 491 kts 261°
2026-05-06 09:38 40.80455 45.84780 30229 ft 492 kts 261°
2026-05-06 09:38 40.79542 45.75830 30228 ft 492 kts 261°
2026-05-06 09:39 40.78624 45.66849 30236 ft 493 kts 261°
2026-05-06 09:39 40.77706 45.57941 30231 ft 494 kts 260°
2026-05-06 09:40 40.76996 45.48927 30242 ft 495 kts 266°
2026-05-06 09:40 40.77551 45.35259 30231 ft 498 kts 272°
2026-05-06 09:41 40.77994 45.26136 30231 ft 498 kts 271°
2026-05-06 09:41 40.78405 45.16997 30225 ft 498 kts 271°
2026-05-06 09:42 40.78800 45.07870 30229 ft 499 kts 271°
2026-05-06 09:42 40.79190 44.98726 30229 ft 499 kts 271°
2026-05-06 09:43 40.79572 44.89567 30214 ft 500 kts 271°
2026-05-06 09:43 40.79947 44.80471 30210 ft 500 kts 271°
2026-05-06 09:44 40.80317 44.71314 30202 ft 499 kts 271°
2026-05-06 09:44 40.80678 44.62172 30207 ft 499 kts 271°
2026-05-06 09:45 40.81034 44.53018 30209 ft 499 kts 271°
2026-05-06 09:45 40.81378 44.43885 30232 ft 498 kts 271°
2026-05-06 09:46 40.81717 44.34767 30239 ft 497 kts 271°
2026-05-06 09:46 40.82051 44.25642 30235 ft 498 kts 271°
2026-05-06 09:47 40.82375 44.16494 30242 ft 498 kts 271°
2026-05-06 09:47 40.82693 44.07361 30234 ft 498 kts 271°
2026-05-06 09:48 40.83004 43.98230 30252 ft 498 kts 271°
2026-05-06 09:48 40.83308 43.89091 30246 ft 498 kts 271°
2026-05-06 09:49 40.83608 43.79950 30240 ft 498 kts 271°
2026-05-06 09:49 40.83923 43.70793 30240 ft 499 kts 271°
2026-05-06 09:50 40.84309 43.61701 30251 ft 499 kts 273°
2026-05-06 09:50 40.84850 43.52556 30248 ft 500 kts 273°
2026-05-06 09:51 40.85304 43.44935 30252 ft 499 kts 273°
2026-05-06 09:51 40.85818 43.35781 30245 ft 499 kts 273°
2026-05-06 09:52 40.86308 43.26634 30243 ft 500 kts 272°
2026-05-06 09:52 40.86790 43.17456 30242 ft 500 kts 272°
2026-05-06 09:53 40.87267 43.08291 30244 ft 500 kts 272°
2026-05-06 09:53 40.87738 42.99118 30256 ft 500 kts 272°
2026-05-06 09:54 40.88198 42.89997 30258 ft 500 kts 272°
2026-05-06 09:54 40.88652 42.80830 30253 ft 500 kts 272°
2026-05-06 09:55 40.89100 42.71661 30259 ft 500 kts 272°
2026-05-06 09:55 40.89541 42.62480 30260 ft 500 kts 272°
2026-05-06 09:56 40.89973 42.53321 30267 ft 499 kts 272°
2026-05-06 09:56 40.90397 42.44166 30272 ft 499 kts 272°
2026-05-06 09:57 40.90817 42.34994 30272 ft 499 kts 272°
2026-05-06 09:57 40.91229 42.25827 30281 ft 499 kts 272°
2026-05-06 09:58 40.91631 42.16709 30279 ft 499 kts 272°
2026-05-06 09:58 40.92031 42.07544 30290 ft 499 kts 272°
2026-05-06 09:59 40.92418 41.98377 30284 ft 500 kts 272°
2026-05-06 09:59 40.92799 41.89193 30296 ft 499 kts 272°
2026-05-06 10:00 40.93171 41.80077 30291 ft 499 kts 272°
2026-05-06 10:00 40.93540 41.70913 30294 ft 499 kts 272°
2026-05-06 10:01 40.93899 41.61745 30299 ft 499 kts 272°
2026-05-06 10:01 40.94253 41.52566 30305 ft 500 kts 272°
2026-05-06 10:02 40.94599 41.43370 30309 ft 500 kts 272°
2026-05-06 10:02 40.94938 41.34181 30307 ft 500 kts 272°
2026-05-06 10:03 40.95271 41.24997 30326 ft 499 kts 272°
2026-05-06 10:03 40.95594 41.15810 30312 ft 500 kts 271°
2026-05-06 10:04 40.95910 41.06618 30323 ft 500 kts 271°
2026-05-06 10:04 40.96220 40.97478 30330 ft 501 kts 271°
2026-05-06 10:05 40.96525 40.88261 30329 ft 501 kts 271°
2026-05-06 10:05 40.96816 40.79066 30336 ft 501 kts 271°
2026-05-06 10:06 40.97098 40.69850 30329 ft 500 kts 271°
2026-05-06 10:06 40.97375 40.60648 30330 ft 501 kts 271°
2026-05-06 10:07 40.97645 40.51439 30330 ft 500 kts 271°
2026-05-06 10:07 40.97907 40.42240 30330 ft 500 kts 271°
2026-05-06 10:08 40.98162 40.33029 30330 ft 501 kts 271°
2026-05-06 10:08 40.98411 40.23817 30334 ft 501 kts 271°
2026-05-06 10:09 40.98650 40.14606 30338 ft 501 kts 271°
2026-05-06 10:09 40.98881 40.05456 30346 ft 501 kts 271°
2026-05-06 10:10 40.99109 39.96239 30349 ft 501 kts 271°
2026-05-06 10:10 40.99329 39.87010 30353 ft 501 kts 271°
2026-05-06 10:11 40.99620 39.77775 30359 ft 502 kts 275°
2026-05-06 10:11 41.00505 39.68599 30358 ft 503 kts 277°
2026-05-06 10:12 41.01429 39.59417 30357 ft 504 kts 276°
2026-05-06 10:12 41.02310 39.50266 30359 ft 504 kts 276°
2026-05-06 10:13 41.03176 39.41032 30360 ft 504 kts 276°
2026-05-06 10:13 41.04036 39.31795 30359 ft 505 kts 276°
2026-05-06 10:14 41.04889 39.22558 30356 ft 505 kts 276°
2026-05-06 10:14 41.05735 39.13326 30357 ft 505 kts 276°
2026-05-06 10:15 41.06592 39.04088 30357 ft 505 kts 276°
2026-05-06 10:15 41.07447 38.94911 30357 ft 505 kts 276°
2026-05-06 10:16 41.08297 38.85659 30356 ft 505 kts 276°
2026-05-06 10:16 41.09141 38.76397 30356 ft 506 kts 276°
2026-05-06 10:17 41.09969 38.67133 30358 ft 506 kts 275°
2026-05-06 10:17 41.10732 38.57849 30358 ft 506 kts 275°
2026-05-06 10:18 41.11510 38.48612 30407 ft 509 kts 276°
2026-05-06 10:18 41.11911 38.43876 30647 ft 510 kts 276°
2026-05-06 10:18 41.12299 38.39268 30964 ft 508 kts 275°
2026-05-06 10:19 41.12688 38.34618 31292 ft 507 kts 275°
2026-05-06 10:19 41.13073 38.29975 31602 ft 506 kts 275°
2026-05-06 10:19 41.13454 38.25334 31888 ft 506 kts 275°
2026-05-06 10:19 41.13831 38.20695 32144 ft 506 kts 275°
2026-05-06 10:20 41.14207 38.16045 32391 ft 506 kts 275°
2026-05-06 10:20 41.14579 38.11402 32628 ft 506 kts 275°
2026-05-06 10:20 41.14951 38.06760 32903 ft 506 kts 275°
2026-05-06 10:20 41.15320 38.02120 33159 ft 506 kts 275°
2026-05-06 10:21 41.15687 37.97475 33368 ft 506 kts 275°
2026-05-06 10:21 41.16053 37.92826 33536 ft 508 kts 275°
2026-05-06 10:21 41.16419 37.88163 33749 ft 508 kts 275°
2026-05-06 10:21 41.16806 37.83507 34011 ft 507 kts 276°
2026-05-06 10:22 41.17214 37.78859 34257 ft 507 kts 276°
2026-05-06 10:22 41.17628 37.74214 34440 ft 507 kts 276°
2026-05-06 10:22 41.18035 37.69567 34654 ft 507 kts 276°
2026-05-06 10:22 41.18438 37.64911 34880 ft 507 kts 276°
2026-05-06 10:23 41.18827 37.60265 35111 ft 506 kts 275°
2026-05-06 10:23 41.19085 37.55607 35309 ft 506 kts 272°
2026-05-06 10:23 41.19307 37.50945 35477 ft 506 kts 274°
2026-05-06 10:23 41.19617 37.46279 35672 ft 507 kts 275°
2026-05-06 10:24 41.19975 37.41626 35863 ft 506 kts 275°
2026-05-06 10:24 41.20335 37.37029 36027 ft 506 kts 275°
2026-05-06 10:24 41.21031 37.27711 36130 ft 508 kts 275°
2026-05-06 10:25 41.21710 37.18362 36137 ft 508 kts 275°
2026-05-06 10:25 41.22451 37.09036 36134 ft 507 kts 275°
2026-05-06 10:26 41.23195 36.99719 36131 ft 507 kts 275°
2026-05-06 10:26 41.23921 36.90397 36124 ft 507 kts 275°
2026-05-06 10:27 41.24631 36.81134 36129 ft 507 kts 275°
2026-05-06 10:27 41.25337 36.71811 36130 ft 507 kts 275°
2026-05-06 10:28 41.26038 36.62478 36126 ft 507 kts 275°
2026-05-06 10:28 41.27073 36.53220 36144 ft 507 kts 283°
2026-05-06 10:29 41.29203 36.44277 36132 ft 507 kts 289°
2026-05-06 10:29 41.31528 36.35413 36133 ft 508 kts 289°
2026-05-06 10:30 41.33822 36.26506 36126 ft 509 kts 288°
2026-05-06 10:30 41.36085 36.17573 36126 ft 510 kts 288°
2026-05-06 10:31 41.38319 36.08683 36117 ft 510 kts 288°
2026-05-06 10:31 41.40576 35.99660 36122 ft 510 kts 288°
2026-05-06 10:32 41.42801 35.90746 36117 ft 510 kts 288°
2026-05-06 10:32 41.45034 35.81767 36112 ft 510 kts 288°
2026-05-06 10:33 41.47262 35.72781 36109 ft 510 kts 288°
2026-05-06 10:33 41.49478 35.63784 36110 ft 510 kts 288°
2026-05-06 10:34 41.51691 35.54799 36108 ft 510 kts 288°
2026-05-06 10:34 41.53881 35.45859 36108 ft 510 kts 288°
2026-05-06 10:35 41.56078 35.36852 36101 ft 510 kts 288°
2026-05-06 10:35 41.58268 35.27844 36109 ft 509 kts 288°
2026-05-06 10:36 41.60447 35.18839 36110 ft 509 kts 288°
2026-05-06 10:36 41.62604 35.09859 36109 ft 507 kts 288°
2026-05-06 10:37 41.64764 35.00883 36119 ft 507 kts 288°
2026-05-06 10:37 41.66917 34.91906 36120 ft 507 kts 288°
2026-05-06 10:38 41.69062 34.82907 36121 ft 508 kts 288°
2026-05-06 10:38 41.71190 34.73946 36118 ft 508 kts 288°
2026-05-06 10:39 41.73325 34.64911 36116 ft 508 kts 288°
2026-05-06 10:39 41.75454 34.55879 36111 ft 509 kts 288°
2026-05-06 10:40 41.77571 34.46837 36112 ft 509 kts 288°
2026-05-06 10:40 41.79682 34.37797 36106 ft 509 kts 288°
2026-05-06 10:41 41.81433 34.30261 36103 ft 509 kts 288°
2026-05-06 10:41 41.83531 34.21204 36100 ft 509 kts 288°
2026-05-06 10:42 41.85625 34.12136 36096 ft 509 kts 288°
2026-05-06 10:42 41.87714 34.03052 36089 ft 509 kts 288°
2026-05-06 10:43 41.89788 33.93988 36093 ft 508 kts 288°
2026-05-06 10:44 41.92888 33.80370 36097 ft 509 kts 287°
2026-05-06 10:44 41.94934 33.71339 36095 ft 509 kts 287°
2026-05-06 10:45 41.96832 33.62180 36096 ft 509 kts 285°
2026-05-06 10:45 41.98548 33.52951 36094 ft 508 kts 284°
2026-05-06 10:46 42.00281 33.43721 36096 ft 508 kts 285°
2026-05-06 10:46 42.02037 33.34514 36089 ft 508 kts 285°
2026-05-06 10:47 42.03792 33.25317 36101 ft 507 kts 285°
2026-05-06 10:47 42.05533 33.16124 36095 ft 507 kts 285°
2026-05-06 10:48 42.07258 33.06977 36091 ft 507 kts 285°
2026-05-06 10:48 42.09107 32.97832 36100 ft 506 kts 287°
2026-05-06 10:49 42.11009 32.88715 36100 ft 506 kts 287°
2026-05-06 10:49 42.12885 32.79569 36102 ft 505 kts 286°
2026-05-06 10:50 42.14734 32.70446 36103 ft 505 kts 286°
2026-05-06 10:50 42.16578 32.61317 36107 ft 504 kts 286°
2026-05-06 10:51 42.18399 32.52253 36111 ft 503 kts 286°
2026-05-06 10:51 42.20215 32.43142 36113 ft 503 kts 286°
2026-05-06 10:52 42.22022 32.34048 36112 ft 502 kts 286°
2026-05-06 10:52 42.23824 32.24947 36112 ft 502 kts 286°
2026-05-06 10:53 42.25621 32.15839 36116 ft 501 kts 286°
2026-05-06 10:53 42.27412 32.06748 36117 ft 501 kts 286°
2026-05-06 10:54 42.29189 31.97632 36122 ft 502 kts 286°
2026-05-06 10:54 42.30955 31.88513 36118 ft 502 kts 286°
2026-05-06 10:55 42.32713 31.79392 36120 ft 501 kts 286°
2026-05-06 10:55 42.34455 31.70332 36116 ft 501 kts 285°
2026-05-06 10:56 42.36203 31.61203 36125 ft 501 kts 285°
2026-05-06 10:56 42.37944 31.52063 36121 ft 501 kts 285°
2026-05-06 10:57 42.39679 31.42919 36115 ft 501 kts 285°
2026-05-06 10:57 42.41405 31.33764 36125 ft 502 kts 285°
2026-05-06 10:58 42.43123 31.24616 36123 ft 501 kts 285°
2026-05-06 10:58 42.44786 31.15715 36130 ft 500 kts 285°
2026-05-06 10:59 42.46477 31.06631 36113 ft 500 kts 285°
2026-05-06 10:59 42.48173 30.97493 36119 ft 500 kts 285°
2026-05-06 11:00 42.49864 30.88352 36123 ft 500 kts 285°
2026-05-06 11:00 42.51545 30.79208 36114 ft 499 kts 285°
2026-05-06 11:01 42.53219 30.70066 36123 ft 499 kts 285°
2026-05-06 11:01 42.54874 30.60986 36124 ft 499 kts 285°
2026-05-06 11:02 42.56532 30.51841 36123 ft 499 kts 285°
2026-05-06 11:02 42.58182 30.42691 36115 ft 498 kts 285°
2026-05-06 11:03 42.59828 30.33573 36113 ft 497 kts 287°
2026-05-06 11:03 42.62361 30.24928 36108 ft 486 kts 299°
2026-05-06 11:03 42.64046 30.21019 36093 ft 475 kts 306°
2026-05-06 11:04 42.65978 30.17482 36109 ft 472 kts 308°
2026-05-06 11:04 42.70028 30.10456 36109 ft 472 kts 309°
2026-05-06 11:05 42.74083 30.03433 36110 ft 472 kts 309°
2026-05-06 11:05 42.78111 29.96351 36106 ft 473 kts 308°
2026-05-06 11:06 42.82116 29.89239 36101 ft 473 kts 308°
2026-05-06 11:06 42.86113 29.82115 36102 ft 473 kts 308°
2026-05-06 11:07 42.90109 29.74980 36102 ft 473 kts 308°
2026-05-06 11:07 42.94097 29.67840 36103 ft 473 kts 308°
2026-05-06 11:08 42.98088 29.60685 36102 ft 473 kts 308°
2026-05-06 11:08 43.02074 29.53513 36100 ft 474 kts 308°
2026-05-06 11:09 43.06029 29.46380 36103 ft 474 kts 308°
2026-05-06 11:09 43.10006 29.39188 36103 ft 474 kts 308°
2026-05-06 11:10 43.13988 29.31985 36105 ft 474 kts 308°
2026-05-06 11:10 43.17960 29.24768 36100 ft 474 kts 308°
2026-05-06 11:11 43.21934 29.17530 36102 ft 474 kts 308°
2026-05-06 11:11 43.25874 29.10338 36102 ft 474 kts 308°
2026-05-06 11:12 43.29834 29.03096 36104 ft 475 kts 308°
2026-05-06 11:12 43.33796 28.95832 36104 ft 475 kts 308°
2026-05-06 11:13 43.37755 28.88552 36100 ft 475 kts 307°
2026-05-06 11:13 43.41710 28.81262 36103 ft 475 kts 307°
2026-05-06 11:14 43.45640 28.74007 36102 ft 475 kts 307°
2026-05-06 11:14 43.49588 28.66694 36099 ft 476 kts 307°
2026-05-06 11:15 43.53535 28.59365 36103 ft 476 kts 307°
2026-05-06 11:15 43.57473 28.52031 36099 ft 476 kts 307°
2026-05-06 11:16 43.61415 28.44673 36102 ft 476 kts 307°
2026-05-06 11:16 43.65353 28.37311 36106 ft 476 kts 307°
2026-05-06 11:17 43.69259 28.29985 36104 ft 476 kts 307°
2026-05-06 11:17 43.73189 28.22597 36099 ft 477 kts 307°
2026-05-06 11:18 43.77116 28.15195 36104 ft 476 kts 307°
2026-05-06 11:18 43.81034 28.07787 36100 ft 477 kts 307°
2026-05-06 11:19 43.84952 28.00370 36099 ft 477 kts 307°
2026-05-06 11:19 43.88861 27.92944 36102 ft 477 kts 307°
2026-05-06 11:20 43.92769 27.85500 36100 ft 478 kts 307°
2026-05-06 11:20 43.96677 27.78040 36102 ft 478 kts 307°
2026-05-06 11:21 44.00558 27.70615 36097 ft 477 kts 307°
2026-05-06 11:21 44.04464 27.63123 36095 ft 477 kts 306°
2026-05-06 11:22 44.08357 27.55631 36092 ft 477 kts 306°
2026-05-06 11:22 44.12235 27.48153 36090 ft 476 kts 306°
2026-05-06 11:23 44.16108 27.40665 36090 ft 476 kts 306°
2026-05-06 11:23 44.19945 27.33220 36084 ft 476 kts 306°
2026-05-06 11:24 44.23808 27.25710 36072 ft 476 kts 306°
2026-05-06 11:24 44.27661 27.18208 36074 ft 475 kts 306°
2026-05-06 11:25 44.31497 27.10711 36073 ft 474 kts 306°
2026-05-06 11:25 44.35339 27.03191 36073 ft 474 kts 306°
2026-05-06 11:26 44.39141 26.95724 36069 ft 474 kts 306°
2026-05-06 11:26 44.42961 26.88198 36064 ft 474 kts 306°
2026-05-06 11:27 44.46777 26.80663 36060 ft 474 kts 306°
2026-05-06 11:27 44.50585 26.73127 36057 ft 474 kts 306°
2026-05-06 11:28 44.54364 26.65630 36049 ft 473 kts 306°
2026-05-06 11:28 44.58158 26.58083 36052 ft 473 kts 306°
2026-05-06 11:29 44.61855 26.50451 36035 ft 473 kts 303°
2026-05-06 11:29 44.65378 26.42643 36038 ft 473 kts 303°
2026-05-06 11:30 44.68863 26.34867 36055 ft 473 kts 303°
2026-05-06 11:30 44.71801 26.28361 36035 ft 473 kts 303°
2026-05-06 11:31 44.75331 26.20560 36051 ft 473 kts 303°
2026-05-06 11:31 44.78870 26.12731 36036 ft 473 kts 303°
2026-05-06 11:32 44.82392 26.04912 36047 ft 473 kts 303°
2026-05-06 11:32 44.85918 25.97070 36052 ft 473 kts 303°
2026-05-06 11:33 44.89435 25.89221 36053 ft 473 kts 303°
2026-05-06 11:33 44.92921 25.81417 36034 ft 472 kts 303°
2026-05-06 11:34 44.96414 25.73574 36052 ft 472 kts 303°
2026-05-06 11:34 44.99907 25.65718 36054 ft 472 kts 303°
2026-05-06 11:35 45.03286 25.57770 36035 ft 472 kts 300°
2026-05-06 11:35 45.06489 25.49672 36045 ft 472 kts 300°
2026-05-06 11:36 45.09681 25.41559 36025 ft 472 kts 300°
2026-05-06 11:36 45.12895 25.33458 36030 ft 471 kts 300°
2026-05-06 11:37 45.16115 25.25374 36027 ft 471 kts 300°
2026-05-06 11:37 45.19311 25.17334 36021 ft 471 kts 300°
2026-05-06 11:38 45.22520 25.09235 36021 ft 471 kts 300°
2026-05-06 11:38 45.25725 25.01118 36018 ft 472 kts 300°
2026-05-06 11:39 45.28923 24.92991 36017 ft 472 kts 300°
2026-05-06 11:39 45.32121 24.84844 36018 ft 472 kts 300°
2026-05-06 11:40 45.35310 24.76701 36015 ft 472 kts 300°
2026-05-06 11:40 45.38500 24.68523 36013 ft 472 kts 300°
2026-05-06 11:41 45.41657 24.60410 36011 ft 471 kts 300°
2026-05-06 11:41 45.44849 24.52184 36008 ft 471 kts 299°
2026-05-06 11:42 45.47995 24.44054 36009 ft 471 kts 299°
2026-05-06 11:42 45.51150 24.35859 35997 ft 472 kts 299°
2026-05-06 11:43 45.54306 24.27652 35999 ft 472 kts 299°
2026-05-06 11:43 45.57462 24.19426 35997 ft 472 kts 299°
2026-05-06 11:44 45.62155 24.07133 36003 ft 472 kts 299°
2026-05-06 11:44 45.65287 23.98901 36000 ft 472 kts 299°
2026-05-06 11:45 45.68420 23.90645 36004 ft 471 kts 299°
2026-05-06 11:45 45.71542 23.82391 35968 ft 472 kts 299°
2026-05-06 11:46 45.74660 23.74127 35974 ft 471 kts 298°
2026-05-06 11:46 45.77766 23.65864 35973 ft 472 kts 298°
2026-05-06 11:47 45.80869 23.57574 35972 ft 471 kts 298°
2026-05-06 11:47 45.83944 23.49343 35979 ft 470 kts 298°
2026-05-06 11:48 45.87028 23.41066 35984 ft 470 kts 298°
2026-05-06 11:48 45.90102 23.32789 35993 ft 469 kts 298°
2026-05-06 11:49 45.93168 23.24505 35994 ft 469 kts 298°
2026-05-06 11:49 45.96218 23.16237 35984 ft 468 kts 298°
2026-05-06 11:50 45.99262 23.07973 35994 ft 467 kts 298°
2026-05-06 11:50 46.02295 22.99708 35983 ft 467 kts 298°
2026-05-06 11:51 46.05324 22.91426 36000 ft 468 kts 298°
2026-05-06 11:51 46.08353 22.83118 35976 ft 468 kts 298°
2026-05-06 11:52 46.11356 22.74853 35984 ft 468 kts 298°
2026-05-06 11:52 46.14371 22.66531 35982 ft 468 kts 298°
2026-05-06 11:53 46.17382 22.58192 35981 ft 468 kts 298°
2026-05-06 11:53 46.20385 22.49851 35984 ft 468 kts 297°
2026-05-06 11:54 46.23380 22.41509 35981 ft 468 kts 297°
2026-05-06 11:54 46.26371 22.33157 35987 ft 467 kts 297°
2026-05-06 11:55 46.29349 22.24812 35989 ft 467 kts 297°
2026-05-06 11:55 46.32316 22.16463 35989 ft 466 kts 297°
2026-05-06 11:56 46.35261 22.08153 35984 ft 466 kts 297°
2026-05-06 11:56 46.38209 21.99814 35984 ft 466 kts 297°
2026-05-06 11:57 46.41155 21.91459 35984 ft 465 kts 297°
2026-05-06 11:57 46.44089 21.83102 35997 ft 465 kts 297°
2026-05-06 11:58 46.47019 21.74735 35993 ft 465 kts 297°
2026-05-06 11:58 46.49942 21.66357 35985 ft 465 kts 297°
2026-05-06 11:59 46.52863 21.57961 35985 ft 465 kts 297°
2026-05-06 11:59 46.55780 21.49553 35990 ft 466 kts 297°
2026-05-06 12:00 46.58690 21.41138 35995 ft 466 kts 296°
2026-05-06 12:00 46.61595 21.32709 35983 ft 466 kts 296°
2026-05-06 12:01 46.64474 21.24324 35995 ft 466 kts 296°
2026-05-06 12:01 46.67368 21.15869 35984 ft 467 kts 296°
2026-05-06 12:02 46.70261 21.07387 35980 ft 467 kts 296°
2026-05-06 12:02 46.73145 20.98910 35982 ft 467 kts 296°
2026-05-06 12:03 46.76027 20.90419 35971 ft 467 kts 296°
2026-05-06 12:03 46.78897 20.81922 35964 ft 467 kts 296°
2026-05-06 12:04 46.81763 20.73419 35959 ft 466 kts 296°
2026-05-06 12:04 46.84602 20.64963 35953 ft 466 kts 295°
2026-05-06 12:05 46.87446 20.56461 35955 ft 465 kts 295°
2026-05-06 12:05 46.90284 20.47953 35952 ft 465 kts 295°
2026-05-06 12:06 46.93116 20.39435 35947 ft 465 kts 295°
2026-05-06 12:06 46.95937 20.30924 35942 ft 465 kts 295°
2026-05-06 12:07 46.98751 20.22404 35944 ft 464 kts 295°
2026-05-06 12:07 47.01560 20.13875 35946 ft 464 kts 294°
2026-05-06 12:08 47.04360 20.05342 35944 ft 464 kts 294°
2026-05-06 12:08 47.07153 19.96797 35944 ft 465 kts 294°
2026-05-06 12:09 47.09949 19.88227 35945 ft 465 kts 294°
2026-05-06 12:09 47.12710 19.79719 35944 ft 465 kts 294°
2026-05-06 12:10 47.15489 19.71135 35945 ft 466 kts 294°
2026-05-06 12:10 47.18265 19.62537 35946 ft 466 kts 294°
2026-05-06 12:11 47.21034 19.53927 35947 ft 466 kts 294°
2026-05-06 12:11 47.23799 19.45298 35945 ft 466 kts 294°
2026-05-06 12:12 47.26558 19.36660 35938 ft 466 kts 294°
2026-05-06 12:12 47.29308 19.28028 35934 ft 466 kts 293°
2026-05-06 12:13 47.32055 19.19375 35935 ft 465 kts 293°
2026-05-06 12:13 47.34531 19.10638 35939 ft 463 kts 286°
2026-05-06 12:14 47.36141 19.01399 36275 ft 465 kts 282°
2026-05-06 12:14 47.36910 18.96776 36633 ft 463 kts 282°
2026-05-06 12:14 47.37680 18.92167 37052 ft 460 kts 282°
2026-05-06 12:15 47.38443 18.87636 37625 ft 452 kts 283°
2026-05-06 12:15 47.39199 18.83155 37952 ft 450 kts 283°
2026-05-06 12:15 47.40728 18.74117 37914 ft 453 kts 283°
2026-05-06 12:16 47.42239 18.65169 37902 ft 450 kts 282°
2026-05-06 12:16 47.43741 18.56235 37894 ft 447 kts 282°
2026-05-06 12:17 47.45228 18.47325 37900 ft 446 kts 282°
2026-05-06 12:17 47.46711 18.38393 37892 ft 448 kts 282°
2026-05-06 12:18 47.48189 18.29453 37889 ft 449 kts 282°
2026-05-06 12:18 47.49665 18.20456 37895 ft 451 kts 282°
2026-05-06 12:19 47.51143 18.11420 37888 ft 452 kts 282°
2026-05-06 12:19 47.52608 18.02409 37890 ft 453 kts 282°
2026-05-06 12:20 47.54077 17.93332 37888 ft 454 kts 282°
2026-05-06 12:20 47.55302 17.85723 37886 ft 453 kts 282°
2026-05-06 12:21 47.56754 17.76648 37890 ft 453 kts 282°
2026-05-06 12:21 47.58193 17.67615 37887 ft 452 kts 282°
2026-05-06 12:22 47.59627 17.58554 37879 ft 452 kts 281°
2026-05-06 12:22 47.61057 17.49483 37875 ft 452 kts 281°
2026-05-06 12:23 47.62477 17.40408 37883 ft 451 kts 281°
2026-05-06 12:23 47.63757 17.31306 37875 ft 450 kts 279°
2026-05-06 12:24 47.64976 17.22189 37870 ft 450 kts 279°
2026-05-06 12:24 47.66208 17.13084 37866 ft 450 kts 279°
2026-05-06 12:25 47.67440 17.03980 37856 ft 450 kts 279°
2026-05-06 12:25 47.69119 16.95076 37843 ft 452 kts 286°
2026-05-06 12:26 47.71135 16.86233 37841 ft 452 kts 287°
2026-05-06 12:26 47.73145 16.77384 37838 ft 452 kts 286°
2026-05-06 12:27 47.75133 16.68512 37832 ft 453 kts 286°
2026-05-06 12:27 47.77104 16.59618 37827 ft 453 kts 286°
2026-05-06 12:28 47.79068 16.50702 37818 ft 453 kts 285°
2026-05-06 12:28 47.81024 16.41796 37823 ft 453 kts 285°
2026-05-06 12:29 47.82963 16.32926 37819 ft 453 kts 285°
2026-05-06 12:29 47.84909 16.23984 37815 ft 453 kts 285°
2026-05-06 12:30 47.86845 16.15044 37826 ft 453 kts 285°
2026-05-06 12:30 47.88779 16.06087 37824 ft 454 kts 285°
2026-05-06 12:31 47.90689 15.97197 37815 ft 454 kts 285°
2026-05-06 12:31 47.92609 15.88217 37816 ft 454 kts 285°
2026-05-06 12:32 47.94520 15.79257 37823 ft 454 kts 285°
2026-05-06 12:32 47.96422 15.70273 37822 ft 454 kts 285°
2026-05-06 12:33 47.98321 15.61271 37815 ft 454 kts 285°
2026-05-06 12:33 48.00214 15.52272 37828 ft 454 kts 285°
2026-05-06 12:34 48.02086 15.43335 37829 ft 454 kts 285°
2026-05-06 12:34 48.03963 15.34322 37826 ft 455 kts 284°
2026-05-06 12:35 48.05837 15.25284 37822 ft 455 kts 284°
2026-05-06 12:35 48.07709 15.16220 37826 ft 456 kts 284°
2026-05-06 12:36 48.09574 15.07147 37823 ft 456 kts 284°
2026-05-06 12:36 48.11432 14.98066 37823 ft 457 kts 284°
2026-05-06 12:37 48.13289 14.88950 37814 ft 457 kts 284°
2026-05-06 12:37 48.15139 14.79829 37815 ft 458 kts 284°
2026-05-06 12:38 48.16977 14.70715 37807 ft 460 kts 284°
2026-05-06 12:38 48.18820 14.61536 37793 ft 461 kts 284°
2026-05-06 12:39 48.20658 14.52340 37787 ft 460 kts 284°
2026-05-06 12:39 48.22485 14.43149 37781 ft 460 kts 284°
2026-05-06 12:40 48.24308 14.33950 37778 ft 460 kts 284°
2026-05-06 12:40 48.26121 14.24740 37774 ft 460 kts 284°
2026-05-06 12:41 48.27932 14.15518 37780 ft 460 kts 284°
2026-05-06 12:41 48.29729 14.06307 37780 ft 460 kts 284°
2026-05-06 12:42 48.31510 13.97143 37776 ft 460 kts 284°
2026-05-06 12:42 48.33293 13.87920 37782 ft 460 kts 283°
2026-05-06 12:43 48.35075 13.78666 37777 ft 461 kts 283°
2026-05-06 12:43 48.36846 13.69400 37776 ft 460 kts 283°
2026-05-06 12:44 48.38613 13.60129 37767 ft 461 kts 283°
2026-05-06 12:44 48.40371 13.50851 37766 ft 461 kts 283°
2026-05-06 12:45 48.42114 13.41624 37766 ft 461 kts 283°
2026-05-06 12:46 48.45070 13.27851 37783 ft 461 kts 289°
2026-05-06 12:46 48.47479 13.18888 37778 ft 462 kts 289°
2026-05-06 12:47 48.49885 13.09899 37771 ft 462 kts 289°
2026-05-06 12:47 48.52268 13.00875 37769 ft 462 kts 289°
2026-05-06 12:48 48.54611 12.91896 37768 ft 462 kts 289°
2026-05-06 12:48 48.56968 12.82847 37782 ft 463 kts 289°
2026-05-06 12:49 48.59318 12.73782 37777 ft 463 kts 288°
2026-05-06 12:49 48.61660 12.64724 37779 ft 463 kts 288°
2026-05-06 12:50 48.63994 12.55656 37775 ft 463 kts 288°
2026-05-06 12:50 48.66318 12.46590 37775 ft 462 kts 288°
2026-05-06 12:51 48.68636 12.37524 37776 ft 462 kts 288°
2026-05-06 12:51 48.70946 12.28434 37784 ft 462 kts 288°
2026-05-06 12:52 48.73246 12.19354 37778 ft 463 kts 288°
2026-05-06 12:52 48.75271 12.10123 37780 ft 460 kts 280°
2026-05-06 12:53 48.76327 12.00597 37794 ft 458 kts 276°
2026-05-06 12:53 48.77292 11.91107 37789 ft 459 kts 276°
2026-05-06 12:54 48.78297 11.81532 37775 ft 460 kts 276°
2026-05-06 12:54 48.79306 11.71963 37775 ft 460 kts 276°
2026-05-06 12:55 48.80309 11.62372 37776 ft 460 kts 276°
2026-05-06 12:55 48.81311 11.52789 37778 ft 460 kts 276°
2026-05-06 12:56 48.82313 11.43194 37781 ft 461 kts 276°
2026-05-06 12:56 48.83307 11.33578 37775 ft 461 kts 276°
2026-05-06 12:57 48.84788 11.24151 37771 ft 464 kts 292°
2026-05-06 12:57 48.88471 11.16033 37771 ft 474 kts 314°
2026-05-06 12:58 48.93474 11.09390 37105 ft 486 kts 316°
2026-05-06 12:58 48.96002 11.05949 36430 ft 485 kts 314°
2026-05-06 12:58 48.98445 11.02536 35690 ft 483 kts 314°
2026-05-06 12:58 49.00901 10.99058 34851 ft 483 kts 313°
2026-05-06 12:59 49.03366 10.95556 33966 ft 485 kts 313°
2026-05-06 12:59 49.05838 10.92058 33056 ft 486 kts 313°
2026-05-06 12:59 49.08321 10.88546 32123 ft 487 kts 313°
2026-05-06 12:59 49.10814 10.85026 31116 ft 489 kts 314°
2026-05-06 13:00 49.13316 10.81495 30222 ft 489 kts 314°
2026-05-06 13:00 49.15796 10.77995 29550 ft 483 kts 314°
2026-05-06 13:00 49.18251 10.74521 28869 ft 478 kts 314°
2026-05-06 13:00 49.20670 10.71068 28200 ft 473 kts 313°
2026-05-06 13:01 49.22972 10.67538 27552 ft 467 kts 311°
2026-05-06 13:01 49.25205 10.63957 26913 ft 462 kts 310°
2026-05-06 13:01 49.27402 10.60408 26276 ft 457 kts 310°
2026-05-06 13:01 49.29589 10.56904 25628 ft 453 kts 311°
2026-05-06 13:02 49.31771 10.53444 24998 ft 449 kts 311°
2026-05-06 13:02 49.33940 10.50018 24389 ft 445 kts 311°
2026-05-06 13:02 49.36082 10.46622 23771 ft 440 kts 310°
2026-05-06 13:02 49.37987 10.43079 23325 ft 431 kts 304°
2026-05-06 13:03 49.39699 10.39309 22887 ft 430 kts 301°
2026-05-06 13:03 49.41356 10.35458 22448 ft 433 kts 301°
2026-05-06 13:03 49.43024 10.31596 21997 ft 434 kts 301°
2026-05-06 13:03 49.44711 10.27768 21546 ft 431 kts 302°
2026-05-06 13:04 49.46407 10.23986 21107 ft 428 kts 302°
2026-05-06 13:04 49.48101 10.20241 20666 ft 425 kts 303°
2026-05-06 13:04 49.49788 10.16530 20231 ft 422 kts 303°
2026-05-06 13:04 49.51462 10.12838 19803 ft 419 kts 303°
2026-05-06 13:05 49.53121 10.09164 19371 ft 416 kts 303°
2026-05-06 13:05 49.54761 10.05528 18949 ft 413 kts 303°
2026-05-06 13:05 49.56399 10.01901 18526 ft 410 kts 303°
2026-05-06 13:05 49.57999 9.98349 18304 ft 394 kts 302°
2026-05-06 13:06 49.59012 9.96096 18090 ft 380 kts 303°
2026-05-06 13:06 49.60481 9.92819 17580 ft 365 kts 302°
2026-05-06 13:06 49.61907 9.89635 16912 ft 358 kts 303°
2026-05-06 13:06 49.63331 9.86468 16431 ft 357 kts 303°
2026-05-06 13:07 49.64722 9.83371 16326 ft 345 kts 302°
2026-05-06 13:07 49.66052 9.80399 16169 ft 330 kts 302°
2026-05-06 13:07 49.67338 9.77517 15988 ft 322 kts 302°
2026-05-06 13:07 49.68595 9.74695 15761 ft 316 kts 302°
2026-05-06 13:08 49.69860 9.71939 15438 ft 314 kts 306°
2026-05-06 13:08 49.71246 9.69335 15067 ft 314 kts 308°
2026-05-06 13:08 49.72672 9.66790 14698 ft 313 kts 309°
2026-05-06 13:08 49.74097 9.64263 14348 ft 311 kts 309°
2026-05-06 13:09 49.75507 9.61749 14018 ft 307 kts 309°
2026-05-06 13:09 49.76885 9.59273 13424 ft 302 kts 308°
2026-05-06 13:09 49.78245 9.56815 12809 ft 308 kts 308°
2026-05-06 13:09 49.79631 9.54295 12497 ft 305 kts 308°
2026-05-06 13:10 49.80988 9.51821 12177 ft 301 kts 308°
2026-05-06 13:10 49.82338 9.49355 11846 ft 299 kts 308°
2026-05-06 13:10 49.83678 9.46897 11538 ft 297 kts 308°
2026-05-06 13:10 49.85001 9.44474 11157 ft 294 kts 308°
2026-05-06 13:11 49.86327 9.42036 10747 ft 296 kts 308°
2026-05-06 13:11 49.87652 9.39601 10445 ft 294 kts 308°
2026-05-06 13:11 49.88962 9.37187 10128 ft 291 kts 308°
2026-05-06 13:11 49.90270 9.34778 9814 ft 290 kts 308°
2026-05-06 13:12 49.91568 9.32381 9478 ft 289 kts 309°
2026-05-06 13:12 49.92858 9.30003 9147 ft 288 kts 309°
2026-05-06 13:12 49.94143 9.27631 8819 ft 286 kts 309°
2026-05-06 13:12 49.95415 9.25278 8487 ft 281 kts 309°
2026-05-06 13:13 49.96677 9.22941 7980 ft 284 kts 309°
2026-05-06 13:13 49.97941 9.20593 7657 ft 283 kts 309°
2026-05-06 13:13 49.99202 9.18253 7377 ft 280 kts 309°
2026-05-06 13:13 50.00431 9.15975 7134 ft 276 kts 309°
2026-05-06 13:14 50.01641 9.13731 7031 ft 261 kts 309°
2026-05-06 13:14 50.02775 9.11622 6933 ft 253 kts 308°
2026-05-06 13:14 50.03883 9.09559 6676 ft 244 kts 309°
2026-05-06 13:14 50.04965 9.07545 6351 ft 238 kts 308°
2026-05-06 13:15 50.06009 9.05597 6310 ft 235 kts 308°
2026-05-06 13:15 50.07059 9.03640 6064 ft 233 kts 308°
2026-05-06 13:15 50.08090 9.01719 5816 ft 230 kts 308°
2026-05-06 13:15 50.09111 8.99808 5544 ft 228 kts 308°
2026-05-06 13:16 50.10108 8.97924 5290 ft 221 kts 304°
2026-05-06 13:16 50.10728 8.95830 5059 ft 213 kts 286°
2026-05-06 13:16 50.11124 8.93623 4857 ft 211 kts 284°
2026-05-06 13:16 50.11393 8.91391 4612 ft 208 kts 266°
2026-05-06 13:17 50.11110 8.89208 4415 ft 199 kts 255°
2026-05-06 13:17 50.10739 8.87160 4150 ft 193 kts 252°
2026-05-06 13:17 50.10315 8.85204 3881 ft 189 kts 250°
2026-05-06 13:17 50.09871 8.83294 3626 ft 186 kts 250°
2026-05-06 13:18 50.09421 8.81403 3400 ft 186 kts 249°
2026-05-06 13:18 50.08978 8.79538 3148 ft 184 kts 250°
2026-05-06 13:18 50.08539 8.77692 2910 ft 179 kts 250°
2026-05-06 13:18 50.08115 8.75909 2664 ft 172 kts 249°
2026-05-06 13:19 50.07715 8.74227 2428 ft 162 kts 249°
2026-05-06 13:19 50.07319 8.72569 2245 ft 164 kts 249°
2026-05-06 13:19 50.06933 8.70939 2044 ft 156 kts 249°
2026-05-06 13:19 50.06571 8.69424 1821 ft 146 kts 249°
2026-05-06 13:20 50.06226 8.67975 1652 ft 144 kts 249°
2026-05-06 13:20 50.05871 8.66486 1446 ft 147 kts 249°
2026-05-06 13:20 50.05518 8.64998 1246 ft 145 kts 249°
2026-05-06 13:20 50.05170 8.63532 1053 ft 144 kts 249°
2026-05-06 13:21 50.04829 8.62069 839 ft 144 kts 248°
2026-05-06 13:21 50.04472 8.60618 679 ft 144 kts 249°
2026-05-06 13:21 50.04127 8.59160 499 ft 145 kts 249°
2026-05-06 13:21 50.03776 8.57694 370 ft 140 kts 249°
2026-05-06 13:22 50.03466 8.56405 364 ft 105 kts 249°
2026-05-06 13:22 50.03268 8.55566 355 ft 62 kts 249°
2026-05-06 13:22 50.03129 8.54986 350 ft 46 kts 249°
2026-05-06 13:22 50.03039 8.54682 342 ft 14 kts 207°
2026-05-06 13:23 50.02959 8.54689 344 ft 8 kts 163°
2026-05-06 13:23 50.02915 8.54769 349 ft 13 kts 111°
2026-05-06 13:23 50.02925 8.54941 351 ft 22 kts 71°
2026-05-06 13:23 50.02995 8.55226 346 ft 30 kts 69°
2026-05-06 13:24 50.03068 8.55530 349 ft 30 kts 70°
2026-05-06 13:24 50.03141 8.55834 357 ft 30 kts 70°
2026-05-06 13:24 50.03213 8.56138 359 ft 30 kts 70°
2026-05-06 13:24 50.03285 8.56440 357 ft 29 kts 70°
2026-05-06 13:25 50.03343 8.56681 359 ft 11 kts 69°
2026-05-06 13:25 50.03330 8.56791 362 ft 11 kts 142°
2026-05-06 13:25 50.03257 8.56842 359 ft 12 kts 160°
2026-05-06 13:25 50.03179 8.56887 367 ft 12 kts 160°
2026-05-06 13:26 50.03068 8.56975 362 ft 21 kts 129°
2026-05-06 13:26 50.03002 8.57179 366 ft 21 kts 115°
2026-05-06 13:26 50.02958 8.57329 361 ft 6 kts 114°
2026-05-06 13:26 50.02956 8.57336 365 ft 1 kts 114°
2026-05-06 13:27 50.02951 8.57353 365 ft 3 kts 114°
2026-05-06 13:27 50.02958 8.57382 359 ft 4 kts 51°
2026-05-06 13:27 50.03003 8.57427 368 ft 8 kts 24°
2026-05-06 13:27 50.03020 8.57440 370 ft 0 kts 25°
2026-05-06 13:28 50.03022 8.57441 361 ft 1 kts 25°
2026-05-06 13:28 50.03026 8.57443 361 ft 1 kts 25°
2026-05-06 13:28 50.03027 8.57444 361 ft 0 kts 25°